[[{"header":{"parameterUnit":"m.s-1","parameterCategory":1,"la1":30.6,"la2":29.2853,"lo1":-89.7004,"lo2":-87.6739,"dy":0.0162,"dx":0.0183,"nx":112,"ny":82,"refTime":"2023-10-14T18:00:00:Z","depth":0,"parameterNumber":2,"parameterNumberName":"U-component_of_WINDS"},"data":[0.0,0.0,0.0,0.0,0.0,0.0,0.0,0.0,0.0,0.0,0.0,0.0,0.0,0.0,0.0,0.0,0.0,0.0,0.0,0.0,0.0,0.0,0.0,0.0,0.0,0.0,0.0,0.0,0.0,0.0,0.0,0.0,0.0,0.0,0.0,0.0,0.0,0.0,0.0,0.0,0.0,0.0,0.0,0.0,0.0,0.0,0.0,0.0,0.0,0.0,0.0,0.0,0.0,0.0,0.0,0.0,0.0,0.0,0.0,0.0,0.0,0.0,0.0,0.0,0.0,0.0,0.0,0.0,0.0,0.0,0.0,0.0,0.0,0.0,0.0,0.0,0.0,0.0,0.0,0.0,0.0,0.0,0.0,0.0,0.0,0.0,0.0,0.0,0.0,0.0,0.0,3.8121,3.7357,3.6803,3.6788,3.5774,3.5116,3.5097,0.0,0.0,0.0,0.0,0.0,0.0,0.0,0.0,0.0,0.0,0.0,0.0,0.0,0.0,0.0,0.0,0.0,0.0,0.0,0.0,0.0,0.0,0.0,0.0,0.0,0.0,0.0,0.0,0.0,0.0,0.0,0.0,0.0,0.0,0.0,0.0,0.0,0.0,0.0,0.0,0.0,0.0,0.0,0.0,0.0,0.0,0.0,0.0,0.0,0.0,0.0,0.0,0.0,0.0,0.0,0.0,0.0,0.0,0.0,0.0,0.0,0.0,0.0,0.0,0.0,0.0,0.0,0.0,0.0,0.0,0.0,0.0,0.0,0.0,0.0,0.0,0.0,0.0,0.0,0.0,0.0,0.0,0.0,0.0,0.0,0.0,0.0,0.0,0.0,0.0,0.0,0.0,0.0,0.0,0.0,0.0,0.0,0.0,0.0,0.0,0.0,0.0,0.0,0.0,3.8063,3.8199,3.7951,3.7743,3.7616,3.6721,3.6121,3.6008,0.0,0.0,0.0,0.0,0.0,0.0,0.0,0.0,0.0,0.0,0.0,0.0,0.0,0.0,0.0,0.0,0.0,0.0,0.0,0.0,0.0,0.0,0.0,0.0,0.0,0.0,0.0,0.0,0.0,0.0,0.0,0.0,0.0,0.0,0.0,0.0,0.0,0.0,0.0,0.0,0.0,0.0,0.0,0.0,0.0,0.0,0.0,0.0,0.0,0.0,0.0,0.0,0.0,0.0,0.0,0.0,0.0,0.0,0.0,0.0,0.0,0.0,0.0,0.0,0.0,0.0,0.0,0.0,0.0,0.0,0.0,0.0,0.0,0.0,0.0,0.0,0.0,0.0,0.0,0.0,0.0,0.0,0.0,0.0,0.0,0.0,0.0,0.0,0.0,0.0,0.0,0.0,0.0,0.0,0.0,0.0,0.0,0.0,0.0,0.0,0.0,0.0,0.0,3.8895,3.9088,3.9553,3.9003,3.8562,3.8514,3.7544,3.673,3.6235,3.5817,0.0,0.0,0.0,0.0,0.0,0.0,0.0,0.0,0.0,0.0,0.0,0.0,0.0,0.0,0.0,0.0,0.0,0.0,0.0,0.0,0.0,0.0,0.0,0.0,0.0,0.0,0.0,0.0,0.0,0.0,0.0,0.0,0.0,0.0,0.0,0.0,0.0,0.0,0.0,0.0,0.0,0.0,0.0,0.0,0.0,0.0,0.0,0.0,0.0,0.0,0.0,0.0,0.0,0.0,0.0,0.0,0.0,0.0,0.0,0.0,0.0,0.0,0.0,0.0,0.0,0.0,0.0,0.0,0.0,0.0,0.0,0.0,0.0,0.0,0.0,0.0,0.0,0.0,0.0,0.0,0.0,0.0,0.0,0.0,0.0,0.0,0.0,0.0,0.0,0.0,0.0,0.0,0.0,0.0,0.0,0.0,0.0,0.0,0.0,0.0,0.0,0.0,3.9816,4.0055,4.0732,3.9971,3.9429,3.9397,3.8384,3.7374,3.6538,3.6291,0.0,0.0,0.0,0.0,0.0,0.0,0.0,0.0,0.0,0.0,0.0,0.0,0.0,0.0,0.0,0.0,0.0,0.0,0.0,0.0,0.0,0.0,0.0,0.0,0.0,0.0,0.0,0.0,0.0,0.0,0.0,0.0,0.0,0.0,0.0,0.0,0.0,0.0,0.0,0.0,0.0,0.0,0.0,0.0,0.0,0.0,0.0,0.0,0.0,0.0,0.0,0.0,0.0,0.0,0.0,0.0,0.0,0.0,0.0,0.0,0.0,0.0,0.0,0.0,0.0,0.0,0.0,0.0,0.0,0.0,0.0,0.0,0.0,0.0,0.0,0.0,0.0,0.0,0.0,0.0,0.0,0.0,0.0,0.0,0.0,0.0,0.0,0.0,0.0,0.0,0.0,0.0,0.0,0.0,0.0,0.0,0.0,0.0,0.0,0.0,0.0,0.0,4.0713,4.0732,4.079,4.0549,4.0354,4.0221,3.9354,3.8366,3.7392,3.6613,0.0,0.0,0.0,0.0,0.0,0.0,0.0,0.0,0.0,0.0,0.0,0.0,0.0,0.0,0.0,0.0,0.0,0.0,0.0,0.0,0.0,0.0,0.0,0.0,0.0,0.0,0.0,0.0,0.0,0.0,0.0,0.0,0.0,0.0,0.0,0.0,0.0,0.0,0.0,0.0,0.0,0.0,0.0,0.0,0.0,0.0,0.0,0.0,0.0,0.0,0.0,0.0,0.0,0.0,0.0,0.0,0.0,0.0,0.0,0.0,0.0,0.0,0.0,0.0,0.0,0.0,0.0,0.0,0.0,0.0,0.0,0.0,0.0,0.0,0.0,0.0,0.0,0.0,0.0,0.0,0.0,0.0,0.0,0.0,0.0,0.0,0.0,0.0,0.0,0.0,0.0,0.0,0.0,0.0,0.0,0.0,0.0,0.0,0.0,0.0,0.0,0.0,4.079,4.079,0.0,4.0621,4.0446,4.0317,3.9908,3.9242,3.8264,0.0,0.0,0.0,0.0,0.0,0.0,0.0,0.0,0.0,0.0,0.0,0.0,0.0,0.0,0.0,0.0,0.0,0.0,0.0,0.0,0.0,0.0,0.0,0.0,0.0,0.0,0.0,0.0,0.0,0.0,0.0,0.0,0.0,0.0,0.0,0.0,0.0,0.0,0.0,0.0,0.0,0.0,0.0,0.0,0.0,0.0,0.0,0.0,0.0,0.0,0.0,0.0,0.0,0.0,0.0,0.0,0.0,0.0,0.0,0.0,0.0,0.0,0.0,0.0,0.0,0.0,0.0,0.0,0.0,0.0,0.0,0.0,0.0,0.0,0.0,0.0,0.0,0.0,0.0,0.0,0.0,0.0,0.0,0.0,0.0,0.0,0.0,0.0,0.0,0.0,0.0,0.0,0.0,0.0,0.0,0.0,0.0,0.0,0.0,0.0,0.0,0.0,4.0578,4.079,4.079,0.0,4.0668,4.053,4.0317,4.0212,3.9757,3.8757,0.0,0.0,0.0,0.0,0.0,0.0,0.0,0.0,0.0,0.0,0.0,0.0,0.0,0.0,0.0,0.0,0.0,0.0,0.0,0.0,0.0,0.0,0.0,0.0,0.0,0.0,0.0,0.0,0.0,0.0,0.0,0.0,0.0,0.0,0.0,0.0,0.0,0.0,0.0,0.0,0.0,0.0,0.0,0.0,0.0,0.0,0.0,0.0,0.0,0.0,0.0,0.0,0.0,0.0,0.0,0.0,0.0,0.0,0.0,0.0,0.0,0.0,0.0,0.0,0.0,0.0,0.0,0.0,0.0,0.0,0.0,0.0,0.0,0.0,0.0,0.0,0.0,0.0,0.0,0.0,0.0,0.0,0.0,0.0,0.0,0.0,0.0,0.0,0.0,0.0,0.0,0.0,0.0,0.0,0.0,0.0,0.0,0.0,0.0,0.0,0.0,0.0,4.059,4.079,4.079,4.079,4.079,4.0654,4.0334,4.03,3.985,0.0,0.0,0.0,0.0,0.0,0.0,0.0,0.0,0.0,0.0,0.0,0.0,0.0,0.0,0.0,0.0,0.0,0.0,0.0,0.0,0.0,0.0,0.0,0.0,0.0,0.0,0.0,0.0,0.0,0.0,0.0,0.0,0.0,0.0,0.0,0.0,0.0,0.0,0.0,0.0,0.0,0.0,0.0,0.0,0.0,0.0,0.0,0.0,0.0,0.0,0.0,0.0,0.0,0.0,0.0,0.0,0.0,0.0,0.0,0.0,0.0,0.0,0.0,0.0,0.0,0.0,0.0,0.0,0.0,0.0,0.0,0.0,0.0,0.0,0.0,0.0,0.0,0.0,0.0,0.0,0.0,0.0,0.0,0.0,0.0,0.0,0.0,0.0,0.0,0.0,0.0,0.0,0.0,0.0,0.0,0.0,0.0,0.0,0.0,0.0,0.0,0.0,0.0,0.0,4.0804,4.079,4.079,4.079,4.0654,4.0334,4.03,4.008,3.9591,0.0,0.0,0.0,0.0,0.0,0.0,0.0,0.0,0.0,0.0,0.0,0.0,0.0,0.0,0.0,0.0,0.0,0.0,0.0,0.0,0.0,0.0,0.0,0.0,0.0,0.0,0.0,0.0,0.0,0.0,0.0,0.0,0.0,0.0,0.0,0.0,0.0,0.0,0.0,0.0,0.0,0.0,0.0,0.0,0.0,0.0,0.0,0.0,0.0,0.0,0.0,0.0,0.0,0.0,0.0,0.0,0.0,0.0,0.0,0.0,0.0,0.0,0.0,0.0,0.0,0.0,0.0,0.0,0.0,0.0,0.0,0.0,0.0,0.0,0.0,0.0,0.0,0.0,0.0,0.0,0.0,0.0,0.0,0.0,0.0,0.0,0.0,0.0,0.0,0.0,0.0,0.0,0.0,0.0,0.0,0.0,0.0,0.0,0.0,0.0,0.0,0.0,4.0691,4.0798,4.079,4.079,4.079,4.0654,4.0334,4.03,4.0176,3.9911,0.0,0.0,0.0,0.0,0.0,0.0,0.0,0.0,0.0,0.0,0.0,0.0,0.0,0.0,0.0,0.0,0.0,0.0,0.0,0.0,0.0,0.0,0.0,0.0,0.0,0.0,0.0,0.0,0.0,0.0,0.0,0.0,0.0,0.0,0.0,0.0,0.0,0.0,0.0,0.0,0.0,0.0,0.0,0.0,0.0,0.0,0.0,0.0,0.0,0.0,0.0,0.0,0.0,0.0,0.0,0.0,0.0,0.0,0.0,0.0,0.0,0.0,0.0,0.0,0.0,0.0,0.0,0.0,0.0,0.0,0.0,0.0,0.0,0.0,0.0,0.0,0.0,0.0,0.0,0.0,0.0,0.0,0.0,0.0,0.0,0.0,0.0,0.0,0.0,0.0,0.0,0.0,0.0,0.0,0.0,0.0,0.0,0.0,0.0,0.0,0.0,0.0,4.0727,4.0819,4.0796,4.0803,4.0803,4.0654,4.0334,4.03,4.0176,3.9911,0.0,0.0,0.0,0.0,0.0,0.0,0.0,0.0,0.0,0.0,0.0,0.0,0.0,0.0,0.0,0.0,0.0,0.0,0.0,0.0,0.0,0.0,0.0,0.0,0.0,0.0,0.0,0.0,0.0,0.0,0.0,0.0,0.0,0.0,0.0,0.0,0.0,0.0,0.0,0.0,0.0,0.0,0.0,0.0,0.0,0.0,0.0,0.0,0.0,0.0,0.0,0.0,0.0,0.0,0.0,0.0,0.0,0.0,0.0,0.0,3.5957,0.0,0.0,0.0,0.0,0.0,0.0,0.0,0.0,0.0,0.0,0.0,0.0,0.0,0.0,0.0,0.0,0.0,0.0,0.0,0.0,0.0,0.0,0.0,0.0,0.0,0.0,0.0,0.0,0.0,0.0,0.0,0.0,0.0,0.0,0.0,0.0,0.0,0.0,0.0,0.0,0.0,4.0933,4.0901,4.0867,4.0807,4.0804,4.0649,4.0334,4.03,4.0176,3.9911,0.0,0.0,0.0,0.0,0.0,0.0,0.0,0.0,0.0,0.0,0.0,0.0,0.0,0.0,0.0,0.0,0.0,0.0,0.0,0.0,0.0,0.0,0.0,0.0,0.0,0.0,0.0,0.0,0.0,0.0,0.0,0.0,0.0,0.0,0.0,0.0,0.0,0.0,0.0,0.0,0.0,0.0,0.0,0.0,0.0,0.0,0.0,0.0,0.0,0.0,0.0,0.0,0.0,0.0,0.0,0.0,0.0,0.0,0.0,0.0,0.0,3.5987,0.0,0.0,0.0,0.0,0.0,0.0,0.0,0.0,0.0,0.0,0.0,0.0,0.0,0.0,0.0,0.0,0.0,0.0,0.0,0.0,0.0,0.0,0.0,0.0,0.0,0.0,0.0,0.0,0.0,0.0,0.0,0.0,0.0,0.0,0.0,0.0,0.0,0.0,0.0,0.0,4.0996,4.0947,4.0898,4.0859,4.0849,4.0742,4.0431,4.0399,4.0266,3.9975,3.9954,0.0,0.0,0.0,0.0,0.0,0.0,0.0,0.0,0.0,0.0,0.0,0.0,0.0,0.0,0.0,0.0,0.0,0.0,0.0,0.0,0.0,0.0,0.0,0.0,0.0,0.0,0.0,0.0,0.0,0.0,0.0,0.0,0.0,0.0,0.0,0.0,0.0,0.0,0.0,0.0,0.0,0.0,0.0,0.0,0.0,0.0,0.0,0.0,0.0,0.0,0.0,0.0,0.0,0.0,3.5678,3.5676,3.5693,3.5767,3.5894,3.5972,3.5994,3.5991,0.0,0.0,0.0,0.0,0.0,0.0,0.0,0.0,0.0,0.0,0.0,0.0,0.0,0.0,0.0,0.0,0.0,0.0,0.0,0.0,0.0,0.0,0.0,0.0,0.0,3.6433,3.6828,0.0,0.0,0.0,0.0,0.0,0.0,0.0,0.0,0.0,0.0,0.0,0.0,4.1016,4.0974,4.0935,4.0906,4.0917,4.0809,4.0568,4.0506,4.0367,4.008,4.0038,3.9975,0.0,0.0,0.0,0.0,0.0,0.0,0.0,0.0,0.0,0.0,0.0,0.0,0.0,0.0,0.0,0.0,0.0,0.0,0.0,0.0,0.0,0.0,0.0,0.0,0.0,0.0,0.0,0.0,0.0,0.0,0.0,0.0,3.4851,3.4523,0.0,0.0,0.0,0.0,0.0,0.0,0.0,0.0,0.0,0.0,0.0,0.0,0.0,0.0,3.5877,3.5699,3.5609,3.5609,3.5553,3.5565,3.5609,3.5659,3.5767,3.5894,3.5965,0.0,3.5991,3.5989,0.0,0.0,0.0,0.0,0.0,0.0,0.0,0.0,0.0,0.0,0.0,0.0,0.0,0.0,0.0,0.0,0.0,0.0,0.0,0.0,0.0,0.0,3.5859,3.5679,3.6297,3.6899,0.0,3.7585,3.8233,3.8252,0.0,0.0,0.0,0.0,0.0,0.0,0.0,0.0,4.1097,4.1077,4.1058,4.0984,4.0988,4.0897,4.0692,4.0563,4.0431,4.0266,4.0139,4.0077,4.0057,4.0036,0.0,0.0,0.0,0.0,0.0,0.0,0.0,0.0,0.0,0.0,0.0,0.0,0.0,0.0,0.0,0.0,0.0,0.0,0.0,0.0,0.0,0.0,0.0,0.0,0.0,0.0,0.0,0.0,0.0,3.4167,3.403,3.3605,3.3695,3.3668,0.0,0.0,0.0,0.0,0.0,0.0,0.0,0.0,0.0,3.5062,3.5258,3.5391,3.5419,3.5509,3.554,3.554,3.5515,3.5515,3.554,3.557,3.566,3.5794,3.5827,3.591,3.5991,3.5991,3.5952,3.5908,0.0,0.0,0.0,0.0,0.0,3.7356,3.7357,0.0,0.0,0.0,0.0,0.0,0.0,0.0,0.0,0.0,0.0,0.0,0.0,0.0,0.0,3.7033,3.7269,3.7656,3.8182,3.8644,3.9019,0.0,3.9907,4.0522,4.0522,0.0,0.0,0.0,0.0,0.0,4.1105,4.1105,4.1091,4.1059,4.1064,4.0988,4.0829,4.0687,4.054,4.037,4.0234,4.0137,4.0117,4.0077,4.0057,0.0,0.0,0.0,0.0,0.0,0.0,0.0,0.0,0.0,0.0,0.0,0.0,0.0,0.0,0.0,0.0,0.0,0.0,0.0,0.0,0.0,0.0,0.0,0.0,0.0,0.0,0.0,0.0,3.346,3.3291,3.2709,3.2872,3.2903,0.0,0.0,0.0,0.0,0.0,0.0,3.412,3.4489,3.4713,3.4713,3.4982,3.5141,3.5209,3.5354,3.5446,3.5493,3.5493,3.5493,3.5507,3.5515,3.5581,3.5687,3.5729,3.5836,3.5957,3.5993,3.5955,3.5904,3.5904,3.6299,3.6894,3.6865,3.7288,3.7839,3.7827,3.7558,3.7201,3.7223,0.0,3.6679,3.6673,0.0,0.0,0.0,0.0,3.8526,3.841,0.0,3.8219,3.8105,3.8213,3.8503,3.9182,3.9548,3.9799,0.0,4.0617,4.1078,4.1108,0.0,0.0,0.0,0.0,4.1103,4.109,4.1107,4.1094,4.1097,4.111,4.1071,4.0971,4.0807,4.0642,4.05,4.0307,4.0196,4.0157,4.0137,4.0137,0.0,0.0,0.0,0.0,0.0,0.0,0.0,0.0,0.0,0.0,0.0,0.0,0.0,0.0,0.0,0.0,0.0,0.0,0.0,0.0,0.0,0.0,0.0,0.0,0.0,0.0,0.0,0.0,0.0,0.0,3.2057,3.2126,0.0,0.0,0.0,0.0,3.2433,3.2759,3.3087,3.3332,3.3854,3.4128,3.4128,3.4634,3.5019,3.5209,3.5209,3.5324,3.5493,3.5493,3.5493,3.5507,3.5558,3.5607,3.5629,3.5806,3.5851,3.5812,3.5957,3.5962,3.59,3.59,3.5974,3.6046,3.5988,3.5997,3.6036,3.6036,3.6543,3.7204,3.7265,3.7825,3.8475,3.8475,3.8495,0.0,0.0,3.8463,3.8384,3.8319,3.8209,3.8085,3.8012,3.8638,3.9264,3.9361,4.0055,4.0665,0.0,4.0894,4.1037,4.1085,0.0,4.1108,4.1108,4.1108,4.1103,4.109,4.1107,4.1094,4.1097,4.111,4.111,4.1085,4.0849,4.0694,4.0681,4.0427,4.0291,4.0291,4.0234,4.0196,4.0196,4.0137,0.0,0.0,0.0,0.0,0.0,0.0,0.0,0.0,0.0,0.0,0.0,0.0,0.0,0.0,0.0,0.0,0.0,0.0,0.0,0.0,0.0,0.0,0.0,0.0,0.0,0.0,0.0,0.0,3.1714,3.186,0.0,0.0,3.147,3.1677,3.1787,3.2092,3.2382,3.2713,3.3112,3.3505,3.3884,3.4218,3.4508,3.4811,3.4926,3.5107,3.5308,3.5308,3.5369,3.5507,3.5522,3.5565,3.5618,3.5713,3.578,3.5809,3.5935,3.5994,3.5964,3.5964,3.6298,3.677,3.6745,3.7094,3.7563,3.7563,3.7436,3.7266,3.7297,3.7502,3.7867,3.8436,3.8961,3.937,3.937,3.9711,4.0059,3.9943,3.9837,3.9747,3.9649,3.9854,4.0081,4.0102,4.0347,4.0602,4.0703,4.0885,4.1011,4.1081,4.1108,4.1108,4.1108,4.1108,4.1103,4.109,4.1093,4.1107,4.1103,4.1095,4.11,4.1091,4.0935,4.0776,4.0706,4.0534,4.0379,4.031,4.0291,4.0253,4.0253,4.0234,4.0017,0.0,0.0,0.0,0.0,0.0,0.0,0.0,0.0,0.0,0.0,0.0,0.0,0.0,0.0,0.0,0.0,0.0,0.0,0.0,0.0,0.0,0.0,0.0,0.0,0.0,0.0,3.1893,3.1157,3.1295,3.124,3.0773,3.0918,3.1157,3.1329,3.149,3.1752,3.2092,3.2517,3.2916,3.3314,3.3643,3.4025,3.4435,3.4569,3.4793,3.5107,3.5176,3.5258,3.5403,3.5479,3.5547,3.5599,3.5678,3.5749,3.5873,3.6277,3.6443,3.6406,3.6112,3.6328,3.6797,3.6796,3.7166,3.7693,3.7986,3.7754,3.7358,3.7639,3.7731,3.7906,3.8746,3.937,3.9858,4.0151,4.0574,4.0906,4.0829,4.0715,4.0602,4.0519,4.0489,4.0489,4.0489,4.0489,4.0549,4.0668,4.083,4.0961,4.1042,4.1081,4.1108,4.1108,4.1108,4.1101,4.1093,4.1094,4.1092,4.1106,4.11,4.11,4.1091,4.0935,4.0787,4.0706,4.0534,4.0379,4.031,4.031,4.031,4.031,4.031,3.9998,3.9383,0.0,0.0,0.0,0.0,0.0,0.0,0.0,0.0,0.0,0.0,0.0,0.0,0.0,0.0,0.0,0.0,0.0,0.0,0.0,0.0,0.0,0.0,0.0,3.1542,3.1671,3.1406,3.0316,3.0401,3.0426,3.0231,3.0189,3.0443,3.0935,3.0975,3.1134,3.1483,3.2056,3.2417,3.2453,3.305,3.3606,3.4197,3.4179,3.4431,3.4984,3.5166,3.525,3.5286,3.5479,3.5612,3.5676,3.5756,3.5864,3.605,3.6957,3.734,3.7265,3.6402,3.6087,3.6072,3.6089,3.6073,3.6209,3.7048,3.7335,3.7477,3.8355,3.8632,3.8785,3.9605,3.9858,4.0054,4.0893,4.1013,4.0888,4.0878,4.0732,4.0566,4.0566,4.0566,4.0566,4.0566,4.0566,4.0611,4.0746,4.0826,4.0896,4.1,4.1081,4.1147,4.1147,4.1166,0.0,4.1189,4.1189,4.1171,4.1179,4.1152,4.1139,4.113,4.0878,4.0706,4.0706,4.046,4.031,4.031,4.031,4.031,4.031,4.0291,4.0099,3.9709,0.0,0.0,0.0,0.0,0.0,0.0,0.0,0.0,0.0,0.0,0.0,0.0,0.0,0.0,0.0,0.0,0.0,0.0,0.0,0.0,0.0,0.0,3.1582,3.124,3.1257,3.1044,3.0351,3.0435,3.0477,3.0231,3.0316,3.0485,3.0651,3.0814,3.1055,3.1351,3.1861,3.268,3.3791,3.4261,3.4954,3.598,3.598,3.6136,3.6415,3.6481,3.6689,3.7007,3.7077,3.7209,3.7417,3.7531,3.7634,3.7751,3.8108,3.8238,3.8222,3.7973,3.7892,3.789,3.7895,3.7897,3.7917,3.8168,3.8244,3.8375,3.9195,3.9468,3.9624,4.0483,4.1186,4.1706,4.1866,4.2276,4.2655,4.2574,4.2469,4.2393,4.2393,4.2393,4.2393,4.2393,4.2393,4.2409,4.2437,4.2477,4.2214,4.1181,4.1538,4.1988,4.2041,0.0,0.0,4.2986,4.2999,4.2966,4.292,4.2382,4.2022,4.1974,4.1361,4.0943,0.0,4.0681,4.0549,4.0444,4.0345,4.031,4.031,4.0,3.9794,0.0,0.0,0.0,0.0,0.0,0.0,0.0,0.0,0.0,0.0,0.0,0.0,0.0,0.0,0.0,0.0,0.0,0.0,0.0,0.0,0.0,0.0,3.1278,3.1278,3.0625,3.0747,3.0666,3.0054,3.0123,3.0182,2.9913,3.0189,3.0516,3.094,3.1266,3.1685,3.2133,3.2679,3.3351,3.425,3.4767,3.5435,3.6278,3.6408,3.6656,3.7005,3.7077,3.7332,3.7693,3.7781,3.7916,0.0,3.8239,3.8335,3.8447,3.8908,3.9097,0.0,0.0,0.0,0.0,0.0,3.8593,3.8593,3.8593,3.8593,3.869,3.9156,3.9527,3.9956,4.0834,4.1663,4.2378,4.2656,4.3024,4.3296,4.3208,4.3138,4.3104,4.3104,4.3104,4.3104,4.3104,4.3104,4.3104,4.3104,0.0,0.0,4.2138,4.2454,4.283,4.2936,4.3372,4.369,0.0,4.3693,4.3683,4.3647,4.3216,4.2912,4.2841,4.2032,0.0,0.0,0.0,4.0629,4.0504,4.043,0.0,0.0,0.0,3.9958,0.0,0.0,0.0,0.0,4.0196,4.0323,0.0,0.0,0.0,0.0,0.0,0.0,0.0,0.0,0.0,0.0,0.0,0.0,0.0,0.0,0.0,0.0,3.1044,3.0788,2.9837,3.0274,3.0392,2.9605,2.9697,2.979,2.9627,3.0152,3.0826,3.1653,3.2185,3.2778,3.3405,0.0,0.0,0.0,0.0,3.5663,3.6059,3.6391,3.6766,3.7225,3.7411,3.7659,3.7941,3.8115,3.8262,3.84,3.852,3.861,3.8741,3.9579,3.9933,3.9878,3.9156,3.8885,3.8885,3.8885,3.8885,0.0,0.0,0.0,0.0,3.9019,3.9585,4.0385,4.1166,4.1915,4.2656,4.3415,4.3558,4.3504,4.3457,4.3428,4.3374,4.3374,4.3374,4.3374,4.3374,4.3374,4.3374,4.3374,4.339,4.3462,4.3643,4.3653,4.3676,4.3833,4.3938,0.0,4.3997,4.3997,4.3986,4.3982,0.0,0.0,4.3755,4.285,4.2276,4.2267,4.1466,4.0887,4.0669,4.075,4.0729,4.0615,4.0519,4.0444,4.0444,4.0367,4.0328,4.0328,4.0375,4.0438,0.0,0.0,0.0,0.0,0.0,0.0,0.0,0.0,0.0,0.0,0.0,0.0,0.0,0.0,0.0,3.0609,3.0251,2.9962,2.9335,3.0356,3.0768,2.9624,3.0012,3.0364,3.0318,3.1459,3.2271,3.2464,3.3102,3.3601,3.3808,3.4619,0.0,3.6112,3.6869,3.7642,3.8335,3.8479,3.8591,3.8681,0.0,0.0,3.9387,3.9428,3.9712,4.0191,4.0215,4.0275,4.0352,4.065,4.0803,4.0834,4.0678,4.062,4.062,4.062,4.062,4.062,4.062,4.1088,4.1674,4.1674,4.2259,4.2982,4.3157,4.3709,0.0,4.4365,4.4831,4.5269,4.515,4.5139,4.5105,4.5105,4.5105,4.5105,4.5105,4.5105,4.5105,4.5105,4.5202,4.5311,4.5393,4.489,4.4534,4.4727,4.5343,4.5792,4.5792,4.5792,4.5802,4.5798,4.5175,4.4726,4.4653,4.3836,4.3298,4.3311,4.3034,4.2505,4.1654,4.2292,4.2609,4.2475,4.1783,4.1389,4.1266,4.0739,4.046,4.046,4.0473,4.0549,0.0,0.0,0.0,0.0,0.0,0.0,0.0,0.0,0.0,0.0,0.0,3.3723,0.0,0.0,3.1602,3.0888,3.0351,3.0098,3.0161,3.0561,3.0749,3.0242,3.0914,3.1472,3.1593,3.2253,3.2885,3.3533,3.4159,3.4679,3.5063,3.5797,3.6417,3.6827,3.7662,3.829,3.8695,3.8931,3.9165,3.9396,3.9421,3.9687,4.0138,4.0138,4.0298,4.0602,4.0668,4.0711,4.0759,4.0857,4.0961,4.1057,4.1057,4.107,4.1108,4.1108,4.1381,4.1752,4.1752,4.2318,4.304,4.304,4.3645,4.4344,4.4261,4.4773,4.5327,4.5243,4.5432,4.5684,4.562,4.5586,4.5586,4.5586,4.5586,4.5586,4.5586,4.5586,4.562,4.5684,4.5757,4.5829,4.5969,4.5674,4.546,4.5629,4.6027,4.63,4.63,4.63,4.6306,4.6297,4.5913,4.5625,4.5567,4.4758,4.4064,4.3624,4.3549,4.3237,4.266,4.3067,4.324,4.3106,4.2681,4.2425,4.2351,4.202,4.1837,4.1851,4.1919,4.1536,0.0,0.0,0.0,0.0,0.0,0.0,0.0,0.0,3.5175,3.4286,3.4105,3.369,3.2301,3.1682,3.1292,3.1157,3.0692,3.0495,3.0916,3.0967,3.1098,3.1434,3.1955,3.2436,3.2722,3.29,3.3517,3.4624,3.5137,3.5704,3.6433,3.6935,3.7243,3.7319,3.8083,3.851,3.8478,3.8844,3.92,3.9571,3.9687,3.9944,4.0372,4.0406,4.0457,4.0504,4.0602,4.0668,4.0706,4.0759,4.0857,4.0974,4.1142,4.1259,4.13,4.1339,4.1908,4.265,4.265,4.3216,4.3957,4.3931,4.4493,4.5187,4.5046,4.5424,4.5863,4.5822,4.5696,4.5586,4.5586,4.5586,4.5586,4.5586,4.5586,4.5586,4.5586,4.5586,4.5637,4.5742,4.5794,4.5879,4.6033,4.6105,4.6176,4.6277,4.63,4.63,4.63,4.63,4.63,4.63,4.6297,4.6269,4.6205,4.5558,4.4787,4.3916,4.4014,4.3985,4.3704,4.386,4.3889,4.3756,4.3582,4.3492,4.3447,4.3318,4.3252,4.3233,4.3384,4.2616,3.5849,3.6114,3.6427,3.6406,3.6148,3.5889,0.0,0.0,3.421,3.3256,3.3665,3.3708,3.2123,3.2072,3.1884,3.0783,3.0664,3.0645,3.0338,3.1678,3.2932,3.3416,3.2789,3.246,3.2902,3.3952,3.4788,3.5436,3.5908,3.6405,3.6974,3.7358,3.7739,3.8156,3.8683,3.8892,3.8833,3.8989,3.9129,3.9165,3.9408,3.9637,3.9882,4.012,4.0321,4.0504,4.0519,4.0588,4.0694,4.0706,4.0749,4.0906,4.1674,4.1975,4.2002,4.2193,4.2806,4.3548,4.3548,4.4133,4.4829,4.4721,4.5274,4.5942,4.5813,4.5794,4.5808,4.5814,4.5696,4.5586,4.5586,4.5586,4.5586,4.5586,4.5586,4.5586,4.5586,4.5586,4.5603,4.562,4.5756,4.5889,4.592,4.6112,4.6277,4.63,4.63,4.63,4.63,4.63,4.63,4.63,4.6303,4.6262,4.6205,4.6105,4.5679,4.4819,4.5475,4.5553,4.4766,4.5487,4.5819,4.5695,4.4937,4.4467,4.4363,4.3699,4.3384,4.3384,4.3514,4.3008,3.6148,3.6393,0.0,0.0,3.5665,3.5224,3.5558,3.5261,3.4726,3.4127,3.406,3.3773,3.2493,3.2068,3.1916,0.0,3.1719,3.1778,3.2566,3.3113,3.3703,3.4319,3.4005,3.4085,3.4841,3.5143,3.5481,3.5985,3.6216,3.6426,3.6615,3.719,3.765,3.7827,3.8478,3.881,3.878,3.8881,3.897,3.9109,3.9305,3.9561,3.9922,4.0042,4.0233,4.0495,4.0508,4.0823,4.133,4.133,4.168,4.2238,4.2594,4.3067,4.351,4.3125,4.3572,4.4343,4.4343,4.4908,4.563,4.556,4.5757,4.5969,4.5871,4.5815,4.5786,4.5715,4.5635,4.5586,4.5586,4.5586,4.5586,4.5586,4.5586,4.5586,4.5586,4.5586,4.562,4.57,4.5775,4.5883,4.5987,4.6105,4.6211,4.6296,4.63,4.63,4.63,4.63,4.63,4.63,4.6293,4.6268,4.6205,4.6206,4.6036,4.5676,4.6001,4.604,4.567,4.6001,4.6162,4.613,4.576,4.5549,4.5483,4.5179,4.5021,4.5021,4.509,4.4623,3.6793,0.0,0.0,3.6404,3.5503,3.4862,3.5392,3.5199,3.4788,3.4368,3.4181,3.3794,3.2877,3.2436,0.0,3.3098,3.2916,3.3036,3.4091,3.4134,3.433,3.4955,3.5005,3.5391,3.6216,3.5898,3.5793,3.6259,3.6409,3.6533,3.6638,3.7283,3.7721,3.7844,3.8433,3.8719,3.8719,3.8792,3.8942,3.9144,3.9331,3.9632,4.0022,4.0101,4.0403,4.0864,4.0857,4.1354,4.2162,4.2162,4.2553,4.3197,4.3429,4.391,4.4485,4.4136,4.4471,4.5106,4.5106,4.5515,4.6041,4.6016,4.5939,4.5871,4.5766,4.5742,4.5712,4.5637,4.5586,4.5586,4.5586,4.5586,4.5586,4.5586,4.5586,4.5586,4.5586,4.5586,4.5637,4.5731,4.5771,4.5848,4.5988,4.6049,4.6216,4.6553,4.6624,4.6651,4.6651,4.6846,4.6983,4.6983,4.6783,4.6639,4.6561,4.6356,4.6214,4.6203,4.6203,4.6196,4.6196,4.6196,4.6196,4.6196,4.6196,4.6196,4.6196,4.6196,4.6196,4.6196,4.6196,4.5859,0.0,0.0,3.7175,3.7168,3.6222,3.528,3.5299,3.4618,3.3753,3.3093,3.3566,3.3839,3.304,3.3567,3.395,3.3464,3.3931,3.4229,3.3877,3.4352,3.4988,3.5526,3.5571,3.5766,0.0,3.5898,3.5793,3.6259,3.6678,3.7055,3.7414,3.7844,3.8252,3.8658,3.8732,3.8792,3.8792,3.8862,3.9017,3.9298,3.9556,3.9832,4.0101,4.0372,4.095,4.1758,4.1758,4.2258,4.3066,4.3066,4.3085,4.3181,4.3968,4.4275,4.441,4.5218,4.567,4.5871,4.5871,4.589,4.5908,4.5829,4.5814,4.5786,4.5654,4.5603,4.5622,4.5586,4.5586,4.5586,4.5586,4.5586,4.5586,4.5586,4.5586,4.5586,4.5586,4.5586,4.5586,4.5622,4.5715,4.5814,4.5814,4.5969,4.6391,4.7235,4.7479,4.7569,4.7569,4.8232,4.872,4.872,4.8037,4.752,4.7479,4.6757,4.6268,4.621,4.6206,4.6206,4.6203,4.6196,4.6196,4.6196,4.6196,4.6196,4.6196,4.6196,4.6196,4.6196,4.6196,4.6183,3.7619,0.0,3.6813,3.613,3.5212,3.4474,3.4371,3.4149,3.3989,3.4021,3.4451,3.485,3.4826,3.499,3.5173,3.5317,3.5248,3.5287,3.5419,3.564,3.5881,3.6028,3.6071,0.0,0.0,0.0,0.0,3.6301,3.6409,3.6678,3.7094,3.7469,3.7879,3.8285,3.8578,3.8719,3.8719,3.875,3.8792,3.891,3.9919,4.0443,4.0583,4.1628,4.2288,4.261,4.2626,4.3124,4.3893,4.3893,4.4239,4.4778,4.5047,4.5163,4.5201,4.549,4.5632,4.5703,4.5802,4.5841,4.5829,4.5808,4.5742,4.5651,4.5603,4.5586,4.5586,4.5586,4.5586,4.5586,4.5586,4.5586,4.5586,4.5586,4.5586,4.5586,4.5586,4.5586,4.5586,4.5586,4.5637,4.5873,4.6486,4.6642,4.7229,4.883,4.8689,4.8408,4.8408,4.8623,4.8798,4.8798,4.8564,4.8398,4.8356,4.7576,4.709,4.7057,4.6527,4.6202,4.6206,4.6206,4.6195,4.6196,4.6196,4.6196,4.6196,4.6196,4.6196,4.6196,4.6195,4.6197,3.7887,3.7125,3.6283,3.5572,3.471,3.4049,3.3921,3.3921,3.4109,3.4715,3.5226,3.5741,3.6313,3.6559,3.67,3.6806,3.6565,3.6474,3.6789,3.685,3.6894,3.7111,3.7111,0.0,0.0,0.0,0.0,3.6527,3.6638,3.69,3.7321,3.7721,3.8068,3.8303,3.8564,3.8707,3.8707,3.9001,3.932,3.9718,4.0795,4.1316,4.1406,4.243,4.3079,4.3422,4.3459,4.3974,4.4741,4.4741,4.5068,4.5586,4.5586,4.5586,4.5586,4.5586,4.5586,4.5603,4.57,4.5727,4.5727,4.5727,4.5668,4.5586,4.5586,4.5586,4.5586,4.5586,4.5586,4.5586,4.5586,4.5586,4.5586,4.5586,4.5586,4.5586,4.5586,4.5586,4.5682,4.599,4.6067,4.6352,4.7224,4.7689,4.8373,4.9698,4.9763,4.9674,4.9712,4.9735,4.9735,4.9735,4.9442,4.9254,4.9268,4.8467,4.7966,4.7968,4.7147,4.6655,4.6655,4.6378,4.6195,4.6192,4.6195,4.6195,4.6192,4.6195,4.6195,4.6192,4.6195,4.6209,3.848,3.7173,3.5637,3.5477,3.4723,3.4046,3.3994,3.3987,3.4229,3.5083,3.5811,3.6549,0.0,0.0,3.8511,3.7984,3.7855,3.7838,3.7838,3.7838,3.8027,0.0,0.0,0.0,0.0,0.0,0.0,3.7128,0.0,3.7775,3.8176,3.8561,3.8786,3.8836,3.8836,3.8836,3.8836,3.9601,4.0492,4.1534,4.2165,4.2462,4.2481,4.2852,4.3464,4.4269,4.4269,4.4747,4.5495,4.5495,4.555,4.5605,4.5586,4.5586,4.5586,4.5586,4.5586,4.5586,4.5586,4.5586,4.5586,4.5586,4.5586,4.5586,4.5586,4.5586,4.5586,4.5586,4.5586,4.5586,4.5586,4.5586,4.5586,4.5586,4.5586,4.5605,4.5663,4.5663,4.5913,4.6797,4.7009,4.7278,4.8029,4.8996,4.973,4.9915,5.065,5.1252,5.139,5.1394,5.1394,5.1394,5.0653,5.0165,5.0165,4.9364,4.8867,4.8863,4.8044,4.7578,4.7572,4.6772,4.6323,4.6321,4.6323,4.6303,4.6262,4.6261,4.6245,4.6204,4.6204,4.6249,3.676,3.5988,3.5286,3.4562,3.4722,3.5003,3.4897,3.5099,3.5447,3.5897,3.6836,3.7714,0.0,0.0,0.0,3.9221,3.8757,0.0,3.8397,3.8397,0.0,0.0,0.0,3.8594,3.8594,3.8929,0.0,0.0,3.8903,3.9018,3.9423,3.9841,4.0188,4.0474,4.0506,4.0506,4.0506,4.0886,4.1351,4.1882,4.2824,4.3316,4.338,4.4341,4.4882,4.5093,4.5093,4.5227,4.5419,4.5476,4.5513,4.5531,4.5586,4.5586,4.5586,4.5586,4.5586,4.5586,4.5586,4.5586,4.5586,4.5586,4.5586,4.5586,4.5586,4.5586,4.5586,4.5586,4.5586,4.5586,4.5586,4.5586,4.5586,4.5586,4.5586,4.5778,4.6432,4.6567,4.6817,4.7625,4.8317,4.8836,4.9029,4.9903,5.0588,5.0655,5.0957,5.1252,5.139,5.1394,5.1394,5.1394,5.1199,5.1063,5.1063,5.0262,4.9774,4.9762,4.8945,4.8465,4.8476,4.8261,4.8144,4.8139,4.8135,4.7823,4.7161,4.7176,4.6825,4.6204,4.6249,4.6289,3.596,3.5584,3.5277,3.47,3.5217,3.5818,3.5708,3.5714,3.5941,3.6649,3.7147,0.0,0.0,0.0,0.0,0.0,0.0,0.0,3.9217,3.9217,3.9328,0.0,3.9595,0.0,3.9595,3.9867,4.0166,0.0,4.0095,3.9994,4.042,4.0651,4.0876,4.1079,4.1111,4.1277,4.1625,4.1783,4.221,4.2904,4.3615,4.4026,4.4212,4.5006,4.5359,4.5361,0.0,4.5361,4.54,4.5438,4.5477,4.5457,4.5531,4.5568,4.5568,4.5586,4.5586,4.5586,4.5586,4.5586,4.5586,4.5586,4.5586,4.5586,4.5586,4.5586,4.5586,4.5586,4.5586,4.5586,4.5586,4.5586,4.5701,4.6086,4.6163,4.6394,4.724,4.7432,4.7682,4.8509,4.9375,4.9971,4.9971,5.043,5.0825,5.0887,5.1023,5.1159,5.1291,5.1362,5.1394,5.1394,5.1394,5.1394,5.1394,5.0945,5.0672,5.0672,4.9852,4.9371,4.9363,4.8992,4.8801,4.8807,4.8808,4.8555,4.8065,4.8066,4.7812,4.7343,4.7377,4.7393,3.5787,3.5671,3.5555,3.5475,3.6012,3.6536,3.6479,3.6188,3.6222,3.722,0.0,0.0,3.9116,0.0,3.9765,3.9948,0.0,4.0103,4.0103,4.0103,4.0319,4.0823,4.0888,4.0918,4.0965,4.1059,4.1255,4.1648,4.1205,4.103,4.1324,4.139,4.1423,4.1423,4.1423,4.1787,4.2518,4.2518,4.3047,4.4048,4.4318,4.4572,4.48,4.5151,4.5297,4.5297,0.0,0.0,4.5398,4.5398,4.54,4.54,4.5476,4.5495,4.5513,4.5568,4.5586,4.5586,4.5586,4.5586,4.5586,4.5586,4.5586,4.5586,4.5586,4.5586,4.5586,4.5586,4.5586,4.5624,4.574,4.5759,4.599,4.6855,4.7067,4.7278,4.8105,4.8355,4.8663,4.9433,5.0183,5.0702,5.0702,5.0702,5.074,5.0858,5.0932,5.1031,5.115,5.1316,5.1394,5.1394,5.1394,5.1394,5.1394,5.1394,5.1394,5.1394,5.0692,5.0262,5.0262,4.956,4.915,4.915,4.9148,4.9092,4.8974,4.8975,4.8914,4.8798,4.8798,4.8798,3.5715,3.5955,3.6387,3.6306,3.686,3.7364,3.7305,3.7247,0.0,0.0,0.0,3.7542,3.7828,3.8977,0.0,3.976,0.0,0.0,0.0,0.0,4.0758,0.0,0.0,0.0,0.0,0.0,0.0,0.0,0.0,0.0,4.2595,4.2883,4.3075,4.3075,4.3075,4.3266,4.3688,4.3706,4.393,4.4346,4.4599,4.4751,4.48,4.5151,4.5297,4.5297,0.0,0.0,4.5317,4.5378,4.5399,4.5419,4.5457,4.5495,4.5513,4.5568,4.5586,4.5586,4.5586,4.5586,4.5586,4.5586,4.5586,4.5586,4.5586,4.5586,4.5586,4.5586,4.5586,4.5759,4.649,4.6682,4.6874,4.7702,4.7894,4.8125,4.899,4.974,5.0279,5.0452,5.0587,5.0702,5.0702,5.0702,5.0702,5.074,5.0841,5.0951,5.102,5.1252,5.1394,5.1394,5.1394,5.1394,5.1394,5.1394,5.1394,5.1394,5.1258,5.118,5.118,5.1023,5.0945,5.0945,5.0949,5.0598,4.9872,4.9876,4.9505,4.8798,4.8798,4.8798,3.6222,3.6644,3.7147,3.7137,3.7661,3.818,3.812,0.0,0.0,0.0,0.0,3.7376,3.7517,0.0,0.0,0.0,0.0,0.0,0.0,0.0,0.0,0.0,0.0,0.0,0.0,0.0,0.0,0.0,0.0,0.0,4.3232,4.341,4.3497,4.3497,4.3497,4.3582,4.3749,4.3749,4.3968,4.4383,4.4519,4.477,4.5087,4.5235,4.5297,4.5297,4.5297,0.0,4.5297,4.5338,4.5378,4.5399,4.5438,4.5476,4.5513,4.5568,4.5586,4.5586,4.5586,4.5586,4.5586,4.5586,4.5586,4.5586,4.5586,4.5913,4.6278,4.6278,4.6586,4.699,4.7432,4.7528,4.774,4.8586,4.9125,4.9567,4.999,5.0394,5.0702,5.0702,5.0702,5.0702,5.0702,5.0758,5.081,5.081,5.0937,5.1081,5.1103,5.1284,5.1394,5.1394,5.1394,5.1394,5.1394,5.1394,5.1394,5.1394,5.1394,5.1394,5.1394,5.1394,5.1394,5.1394,5.1394,5.1199,5.0789,5.0789,5.0555,5.0145,5.0145,5.0145,3.6939,3.7424,3.794,3.794,3.8302,3.8707,3.8707,3.8401,0.0,0.0,0.0,3.7206,0.0,0.0,0.0,0.0,0.0,0.0,0.0,0.0,0.0,0.0,0.0,0.0,0.0,0.0,0.0,0.0,0.0,0.0,0.0,4.3497,4.3497,4.3497,4.3497,4.3513,4.3615,4.3615,4.3855,4.4383,4.4465,4.472,4.5194,4.5256,4.5297,4.5297,0.0,0.0,0.0,4.5317,4.5338,4.5399,4.5419,4.5438,4.5513,4.5568,4.5586,4.5624,4.5797,4.5874,4.5913,4.6067,4.6009,4.5874,4.5874,4.6471,4.7163,4.7163,4.7605,4.8144,4.8336,4.8375,4.8606,4.9471,5.0202,5.0702,5.0702,5.0702,5.0702,5.0702,5.0702,5.0702,5.074,5.0825,5.0902,5.0913,5.107,5.1159,5.1203,5.1291,5.1362,5.1394,5.1394,5.1394,5.1394,5.1394,5.1394,5.1394,5.1394,5.1394,5.1394,5.1394,5.1394,5.1394,5.1394,5.1394,5.1394,5.1394,5.1394,5.1394,5.1394,5.1394,3.7711,3.8172,3.8711,3.8711,3.8695,3.8707,3.8707,0.0,0.0,0.0,3.7541,3.7223,0.0,0.0,0.0,0.0,0.0,0.0,0.0,0.0,0.0,0.0,0.0,0.0,0.0,0.0,0.0,0.0,0.0,0.0,0.0,4.3497,4.3497,4.3497,4.3497,4.3649,4.3942,4.3942,4.4121,4.4383,4.465,4.4776,4.4868,4.5173,4.5297,4.5297,0.0,0.0,0.0,4.5378,4.5379,4.5418,4.5477,4.5495,4.5513,4.5568,4.5586,4.5701,4.6509,4.6778,4.6913,4.7625,4.7375,4.6778,4.6778,4.7355,4.799,4.799,4.8048,4.8279,4.9086,4.9279,4.949,5.0356,5.0625,5.0702,5.0702,5.0702,5.0702,5.0702,5.0702,5.074,5.0858,5.0887,5.0928,5.0991,5.1008,5.1063,5.1176,5.1211,5.1278,5.139,5.1394,5.1394,5.1394,5.1394,5.1394,5.1394,5.1394,5.1394,5.1394,5.1394,5.1394,5.1394,5.1394,5.1394,5.1394,5.1394,5.1394,5.1394,5.1394,5.1394,3.8516,3.8652,3.8792,3.8792,3.875,3.8707,3.8707,0.0,3.8428,3.7862,3.7739,3.7469,3.6748,0.0,0.0,0.0,0.0,0.0,0.0,0.0,0.0,0.0,0.0,0.0,0.0,0.0,0.0,0.0,0.0,0.0,0.0,4.3497,4.3497,4.3497,4.3497,4.3548,4.3682,4.391,4.4121,4.4383,4.4676,4.491,4.5109,4.5235,4.5297,4.5297,0.0,0.0,0.0,4.5359,4.5399,4.54,4.5476,4.5513,4.5626,4.6182,4.6374,4.6509,4.7336,4.7625,4.7682,4.8009,4.824,4.8317,4.7778,4.8221,4.8875,4.8875,4.926,4.974,5.0087,5.0183,5.026,5.0606,5.0702,5.0702,5.0702,5.0702,5.0702,5.0702,5.0702,5.074,5.089,5.0937,5.0991,5.1094,5.1195,5.1258,5.1302,5.1327,5.1333,5.139,5.1394,5.1394,5.1394,5.1394,5.1394,5.1394,5.1394,5.1394,5.1394,5.1394,5.1394,5.1394,5.1394,5.1394,5.1394,5.1394,5.1394,5.1394,5.1394,5.1394,3.895,3.8881,3.878,3.8792,3.875,3.8707,0.0,0.0,3.8634,3.7982,3.7895,3.7721,3.6869,3.792,0.0,0.0,0.0,0.0,0.0,0.0,0.0,0.0,0.0,0.0,0.0,0.0,0.0,0.0,0.0,0.0,0.0,4.3497,4.3497,4.3497,4.3497,4.3566,4.3649,4.3878,4.4162,4.4519,4.4701,4.5,4.5297,4.5297,4.5297,0.0,0.0,0.0,0.0,4.5399,4.5419,4.5438,4.5783,4.5953,4.6086,4.6951,4.7259,4.7375,4.8202,4.849,4.8529,4.8798,4.9279,4.9663,4.9067,4.9298,4.9779,4.9779,5.0221,5.0702,5.0702,5.0702,5.0702,5.0702,5.0702,5.0702,5.0702,5.0702,5.0702,5.0702,5.0702,5.0758,5.0913,5.0966,5.1053,5.1218,5.1333,5.1394,5.1394,5.1394,5.1394,5.1394,5.1394,5.1394,5.1394,5.1394,5.1394,5.1394,5.1394,5.1394,5.1394,5.1394,5.1394,5.1394,5.1394,5.1394,5.1394,5.1394,5.1394,5.1394,5.1394,5.1394,3.891,3.8792,3.8738,3.8792,3.875,3.8719,0.0,3.891,3.8725,3.8047,3.7998,3.7809,3.697,3.7945,3.8903,3.8789,0.0,0.0,0.0,0.0,0.0,0.0,0.0,0.0,0.0,0.0,0.0,0.0,0.0,0.0,0.0,0.0,4.3497,4.3497,4.3497,4.3649,4.4005,4.4005,4.4279,4.4819,4.48,4.5,4.5297,4.5297,0.0,0.0,0.0,0.0,0.0,4.5438,4.5457,4.5496,4.6511,4.6894,4.699,4.7798,4.8086,4.8221,4.9086,4.9394,4.9529,5.0375,5.0664,5.0683,5.0664,5.0664,5.0683,5.0683,5.0683,5.0702,5.0702,5.0702,5.0702,5.0702,5.0702,5.0702,5.0702,5.0702,5.0702,5.0702,5.0702,5.0756,5.0959,5.1008,5.1084,5.1362,5.1394,5.1394,5.1394,5.1394,5.1394,5.1394,5.1394,5.1394,5.1394,5.1394,5.1394,5.1394,5.1394,5.1394,5.1394,5.1394,5.1394,5.1394,5.1394,5.1394,5.1394,5.1394,5.1394,5.1394,5.1394,5.1394,3.9116,3.891,3.8851,3.8881,3.8851,3.8851,3.891,3.8773,3.8491,3.8013,3.7773,3.7487,3.6869,3.792,3.8842,3.8684,4.0124,0.0,0.0,0.0,0.0,0.0,0.0,0.0,0.0,0.0,0.0,0.0,0.0,0.0,0.0,0.0,4.3497,4.3497,4.3497,4.3548,4.3649,4.4072,4.4346,4.4519,4.4934,4.5194,4.5297,4.5297,0.0,0.0,0.0,0.0,0.0,4.6262,4.6666,4.7222,4.7587,4.7721,4.7817,4.8663,4.899,4.9106,4.999,5.0279,5.0317,5.0606,5.0702,5.0702,5.0702,5.0702,5.0702,5.0702,5.0702,5.0702,5.0702,5.0702,5.0702,5.0702,5.0702,5.0702,5.0702,5.0702,5.0702,5.0702,5.0702,5.0758,5.0894,5.0966,5.1053,5.1245,5.1333,5.1394,5.1394,5.1394,5.1394,5.1394,5.1394,5.1394,5.1394,5.1394,5.1394,5.1394,5.1394,5.1394,5.1394,5.1394,5.1394,5.1394,5.1394,5.1394,5.1394,5.1394,5.1394,5.1394,5.1394,5.1394,0.0,3.919,3.891,3.8921,3.8939,0.0,0.0,3.8815,3.8554,3.8065,3.7826,3.7612,3.7271,3.8129,3.9033,3.9444,4.078,0.0,0.0,0.0,0.0,0.0,0.0,0.0,0.0,0.0,0.0,0.0,0.0,0.0,0.0,0.0,4.3497,4.3497,4.3497,4.3548,4.3682,4.4042,4.4346,4.4546,4.4934,4.5173,4.5297,0.0,0.0,0.0,0.0,0.0,0.0,4.7144,4.753,4.8067,4.8452,4.8586,4.8702,4.9567,4.9894,4.9971,5.051,5.0702,5.0702,5.0702,5.0702,5.0702,5.0702,5.0702,5.0702,5.0702,5.0702,5.0702,5.0702,5.0702,5.0702,5.0702,5.0702,5.0702,5.0702,5.0702,5.0702,5.0702,5.0702,5.074,5.089,5.0937,5.1016,5.1187,5.1265,5.1333,5.139,5.1394,5.1394,5.1394,5.1394,5.1394,5.1394,5.1394,5.1394,5.1394,5.1394,5.1394,5.1394,5.1394,5.1394,5.1394,5.1394,5.1394,5.1394,5.1394,5.1394,5.1394,5.1394,5.1394,0.0,0.0,0.0,0.0,0.0,0.0,0.0,3.9017,0.0,3.8234,3.8068,3.799,3.7983,3.8537,3.9415,4.0782,4.2244,0.0,0.0,0.0,0.0,0.0,0.0,0.0,0.0,0.0,0.0,0.0,0.0,0.0,0.0,0.0,0.0,4.3497,4.3497,4.3649,4.3974,4.4005,4.4279,4.4776,4.4857,4.5076,4.5411,0.0,0.0,0.0,0.0,0.0,0.0,4.8067,4.8164,4.8356,4.9164,4.949,4.9586,5.0394,5.0702,5.0702,5.0702,5.0702,5.0702,5.0702,5.0702,5.0702,5.0702,5.0702,5.0702,5.0702,5.0702,5.0702,5.0702,5.0702,5.0702,5.0702,5.0702,5.0702,5.0702,5.0702,5.0702,5.0702,5.0702,5.074,5.0874,5.0902,5.0965,5.117,5.1203,5.1258,5.139,5.1394,5.1394,5.1394,5.1394,5.1394,5.1394,5.1394,5.1394,5.1394,5.1394,5.1394,5.1394,5.1394,5.1394,5.1394,5.1394,5.1394,5.1394,5.1394,5.1394,5.1394,5.1394,5.1394,4.2284,0.0,3.988,3.924,0.0,0.0,0.0,0.0,0.0,0.0,0.0,3.7394,3.776,3.8929,4.0058,4.081,0.0,0.0,0.0,0.0,0.0,0.0,0.0,0.0,0.0,0.0,0.0,0.0,0.0,0.0,0.0,0.0,0.0,4.3497,4.3497,4.3532,4.3615,4.4072,4.4374,4.4511,4.5603,4.6151,4.6252,0.0,0.0,0.0,0.0,0.0,4.8805,4.889,4.9333,5.0027,5.0279,5.0375,5.0414,5.0606,5.0702,5.0702,5.0702,5.0702,5.0702,5.0702,5.0702,5.0702,5.0702,5.0702,5.0702,5.0702,5.0702,5.0702,5.0702,5.0702,5.0702,5.0702,5.0702,5.0702,5.0702,5.0702,5.0702,5.0702,5.0702,5.0702,5.074,5.0863,5.0984,5.1042,5.1218,5.1362,5.1394,5.1394,5.1394,5.1394,5.1394,5.1394,5.1394,5.1394,5.1394,5.1394,5.1394,5.1394,5.1394,5.1394,5.1394,5.1394,5.1394,5.1394,5.1394,5.1394,5.1394,5.1394,5.1394,5.1394,4.2445,4.133,4.029,3.9807,3.9398,3.9073,0.0,0.0,0.0,0.0,0.0,0.0,3.8223,0.0,0.0,0.0,0.0,0.0,0.0,0.0,0.0,0.0,0.0,0.0,0.0,0.0,0.0,0.0,0.0,0.0,0.0,0.0,0.0,0.0,4.3497,4.3582,4.3716,4.4173,4.4654,4.5183,4.6073,4.671,4.7131,0.0,0.0,0.0,0.0,0.0,4.9748,4.9812,5.0161,5.0643,5.0702,5.0702,5.0702,5.0702,5.0702,5.0702,5.0702,5.0702,5.0702,5.0702,5.0702,5.0702,5.0702,5.0702,5.0702,5.0702,5.0702,5.0702,5.0702,5.0702,5.0702,5.0702,5.0702,5.0702,5.0702,5.0702,5.0702,5.0702,5.0702,5.0702,5.0702,5.0789,5.0874,5.0945,5.1081,5.1206,5.1291,5.1322,5.1327,5.139,5.1394,5.1394,5.1394,5.1394,5.1394,5.1394,5.1394,5.1394,5.1394,5.1394,5.1394,5.1394,5.1394,5.1394,5.1394,5.1394,5.1394,5.1394,5.1394,5.1394,4.2184,4.1152,4.0455,4.0253,3.9611,3.8942,0.0,0.0,0.0,0.0,0.0,0.0,0.0,0.0,0.0,0.0,0.0,0.0,0.0,0.0,0.0,0.0,0.0,0.0,0.0,0.0,0.0,0.0,0.0,0.0,0.0,0.0,0.0,0.0,4.3681,4.3889,4.4358,4.4522,4.5141,4.6209,4.6672,4.7283,4.8028,4.8888,0.0,0.0,0.0,0.0,5.05,5.0582,5.0643,5.0702,5.0702,5.0702,5.0702,5.0702,5.0702,5.0702,5.0702,5.0702,5.0702,5.0702,5.0702,5.0702,5.0702,5.0702,5.0702,5.0702,5.0702,5.0702,5.0702,5.0702,5.0702,5.0702,5.0702,5.0702,5.0702,5.0702,5.0702,5.0702,5.0702,5.0702,5.0702,5.0721,5.0776,5.0871,5.0917,5.0978,5.1141,5.1159,5.1218,5.1357,5.1362,5.1386,5.1394,5.1394,5.1394,5.1394,5.1394,5.1394,5.1394,5.1394,5.1394,5.1394,5.1394,5.1394,5.1394,5.1394,5.1394,5.1394,5.1394,5.1394,4.2872,4.1816,4.0732,3.9583,3.8976,3.864,0.0,0.0,0.0,0.0,0.0,0.0,0.0,0.0,0.0,0.0,0.0,0.0,0.0,0.0,0.0,0.0,0.0,0.0,0.0,0.0,0.0,0.0,0.0,0.0,0.0,0.0,0.0,0.0,0.0,4.4994,4.6011,4.5664,4.5942,4.6779,4.8085,4.8774,4.8926,4.9748,5.0111,0.0,0.0,5.0435,5.05,5.0582,5.0643,5.0702,5.0702,5.0702,5.0702,5.0702,5.0702,5.0702,5.0702,5.0702,5.0702,5.0702,5.0702,5.0702,5.0702,5.0702,5.0702,5.0702,5.0702,5.0702,5.0702,5.0702,5.0702,5.0702,5.0702,5.0702,5.0702,5.0702,5.0702,5.0702,5.0702,5.0702,5.0702,5.0793,5.089,5.0906,5.0945,5.1004,5.1031,5.1031,5.1074,5.1211,5.1218,5.1284,5.139,5.1394,5.1394,5.1394,5.1394,5.1394,5.1394,5.1394,5.1394,5.1394,5.1394,5.1394,5.1394,5.1394,5.1394,5.1394,5.1394,5.1394,4.237,4.1286,4.0147,3.9102,3.87,0.0,0.0,0.0,0.0,0.0,0.0,0.0,0.0,0.0,0.0,0.0,0.0,0.0,0.0,0.0,0.0,0.0,0.0,0.0,0.0,0.0,0.0,0.0,0.0,0.0,0.0,0.0,0.0,0.0,0.0,4.6149,4.7305,4.7278,4.7464,4.7842,4.8686,4.9328,4.9767,5.013,5.0302,5.0302,0.0,5.0478,5.05,5.0623,5.0663,5.0702,5.0702,5.0702,5.0702,5.0702,5.0702,5.0702,5.0702,5.0702,5.0702,5.0702,5.0702,5.0702,5.0702,5.0702,5.0702,5.0702,5.0702,5.0702,5.0702,5.0702,5.0702,5.0702,5.0702,5.0702,5.0702,5.0702,5.0702,5.0702,5.0702,5.0702,5.0702,5.074,5.0793,5.0793,5.0822,5.0863,5.0951,5.0951,5.1023,5.1187,5.1203,5.1252,5.139,5.1394,5.1394,5.1394,5.1394,5.1394,5.1394,5.1394,5.1394,5.1394,5.1394,5.1394,5.1394,5.1394,5.1394,5.1394,5.1394,5.1394,4.159,4.0523,3.9493,3.8687,0.0,0.0,0.0,0.0,0.0,0.0,0.0,0.0,0.0,0.0,0.0,0.0,0.0,0.0,0.0,0.0,0.0,0.0,0.0,0.0,0.0,0.0,0.0,0.0,0.0,0.0,0.0,0.0,0.0,0.0,0.0,0.0,4.8483,4.8756,4.8882,4.8882,4.921,4.9691,5.0302,5.0302,5.0302,5.0325,5.0457,5.05,5.0521,5.0643,5.0702,5.0702,5.0702,5.0702,5.0702,5.0702,5.0702,5.0702,5.0702,5.0702,5.0702,5.0702,5.0702,5.0702,5.0702,5.0702,5.0702,5.0702,5.0702,5.0702,5.0702,5.0702,5.0702,5.0702,5.0702,5.0702,5.0702,5.0702,5.0702,5.0702,5.0702,5.0702,5.0702,5.0702,5.0702,5.0702,5.0702,5.074,5.0841,5.0858,5.0928,5.1113,5.1133,5.1187,5.1333,5.139,5.1394,5.1394,5.1394,5.1394,5.1394,5.1394,5.1394,5.1394,5.1394,5.1394,5.1394,5.1394,5.1394,5.1394,5.1394,5.1394,4.0903,3.9913,3.9148,3.8334,0.0,0.0,0.0,0.0,0.0,0.0,0.0,0.0,0.0,0.0,0.0,0.0,0.0,0.0,0.0,0.0,0.0,0.0,0.0,0.0,0.0,0.0,0.0,0.0,0.0,0.0,0.0,0.0,0.0,0.0,0.0,0.0,4.9662,4.9709,4.9709,4.9709,5.0049,5.0245,5.0302,5.0302,5.0325,5.0412,5.0478,5.0521,5.0603,5.0663,5.0702,5.0702,5.0702,5.0702,5.0702,5.0702,5.0702,5.0702,5.0702,5.0702,5.0702,5.0702,5.0702,5.0702,5.0702,5.0702,5.0702,5.0702,5.0702,5.0702,5.0702,5.0702,5.0702,5.0702,5.0702,5.0702,5.0702,5.0702,5.0702,5.0702,5.0702,5.0702,5.0702,5.0702,5.0702,5.0702,5.0702,5.0702,5.0702,5.0721,5.0776,5.0902,5.0932,5.1005,5.1195,5.1327,5.1394,5.1394,5.1394,5.1394,5.1394,5.1394,5.1394,5.1394,5.1394,5.1394,5.1394,5.1394,5.1394,5.1394,5.1394,5.1394,4.024,3.9315,3.843,3.7881,0.0,0.0,0.0,0.0,0.0,0.0,0.0,0.0,0.0,0.0,0.0,0.0,0.0,0.0,0.0,0.0,0.0,0.0,0.0,0.0,0.0,0.0,0.0,0.0,0.0,0.0,0.0,0.0,0.0,0.0,0.0,0.0,0.0,5.012,5.012,5.012,5.0236,5.0302,5.0302,5.0302,5.0325,5.0412,5.0478,5.0542,5.0603,5.0663,5.0702,5.0702,5.0702,5.0702,5.0702,5.0702,5.0702,5.0702,5.0702,5.0702,5.0702,5.0702,5.0702,5.0702,5.0702,5.0702,5.0702,5.0702,5.0702,5.0702,5.0702,5.0702,5.0702,5.0702,5.0702,5.0702,5.0702,5.0702,5.0702,5.0702,5.0702,5.0702,5.0702,5.0702,5.0702,5.0702,5.0702,5.0702,5.0702,5.0702,5.074,5.089,5.0937,5.1027,5.1195,5.1252,5.1302,5.1394,5.1394,5.1394,5.1394,5.1394,5.1394,5.1394,5.1394,5.1394,5.1394,5.1394,5.1394,5.1394,5.1394,5.1394,3.9447,3.8616,3.7898,0.0,0.0,0.0,0.0,0.0,0.0,0.0,0.0,0.0,0.0,0.0,0.0,0.0,0.0,0.0,0.0,0.0,0.0,0.0,0.0,0.0,0.0,0.0,0.0,0.0,0.0,0.0,0.0,0.0,0.0,0.0,0.0,0.0,0.0,5.0302,5.0302,5.0302,5.0302,5.0302,5.0302,5.0302,5.0348,5.0435,5.0478,5.0542,5.0623,5.0663,5.0702,5.0702,5.0702,5.0702,5.0702,5.0702,5.0702,5.0702,5.0702,5.0702,5.0702,5.0702,5.0702,5.0702,5.0702,5.0702,5.0702,5.0702,5.0702,5.0702,5.0702,5.0702,5.0702,5.0702,5.0702,5.0702,5.0702,5.0702,5.0702,5.0702,5.0702,5.0702,5.0702,5.0914,5.1087,5.1087,5.1298,5.1491,5.1491,5.1491,5.153,5.1619,5.1702,5.1787,5.19,5.1968,5.2063,5.2147,5.2206,5.196,5.1414,5.1394,5.1394,5.1394,5.1394,5.1394,5.1394,5.1394,5.1394,5.1394,5.1394,5.155,3.8401,3.7791,0.0,0.0,0.0,0.0,0.0,0.0,0.0,0.0,0.0,0.0,0.0,0.0,0.0,0.0,0.0,0.0,0.0,0.0,0.0,0.0,0.0,0.0,0.0,0.0,0.0,0.0,0.0,0.0,0.0,0.0,0.0,0.0,0.0,0.0,0.0,5.0302,5.0302,5.0302,5.0302,5.0302,5.0302,5.0302,5.0371,5.05,5.05,5.0582,5.0702,5.0702,5.0702,5.0702,5.0702,5.0702,5.0702,5.0702,5.0702,5.0702,5.0702,5.0702,5.0702,5.0702,5.0702,5.0702,5.0702,5.0702,5.0702,5.0702,5.0702,5.0702,5.0702,5.0702,5.0702,5.0702,5.0702,5.0702,5.0702,5.0702,5.0702,5.0702,5.0702,5.0702,5.0702,5.1375,5.1914,5.1914,5.2664,5.3203,5.3203,5.3203,5.3203,5.3203,5.3319,5.3404,5.3404,5.3647,5.3805,5.3794,5.3922,5.3229,5.1492,5.1414,5.1414,5.1414,5.1414,5.1414,5.1414,5.1414,5.1414,5.1414,5.1414,5.1882,3.7915,3.7578,0.0,0.0,0.0,0.0,0.0,0.0,0.0,0.0,0.0,0.0,0.0,0.0,0.0,0.0,0.0,0.0,0.0,0.0,0.0,0.0,0.0,0.0,0.0,0.0,0.0,0.0,0.0,0.0,0.0,0.0,0.0,0.0,0.0,0.0,5.0302,5.0302,5.0302,5.0302,5.0302,5.0302,5.0302,5.0348,5.0435,5.05,5.0542,5.0623,5.0702,5.0702,5.0702,5.0702,5.0702,5.0702,5.0702,5.0702,5.0702,5.0702,5.0702,5.0702,5.0702,5.0702,5.0702,5.0702,5.0702,5.0702,5.0702,5.0702,5.0702,5.0702,5.0702,5.0702,5.0702,5.0702,5.0702,5.0702,5.0702,5.0702,5.0702,5.0702,5.0702,5.0875,5.1452,5.1741,5.2125,5.2722,5.3029,5.3203,5.3203,5.3203,5.3203,5.3203,5.3244,5.3301,5.3404,5.346,5.3598,5.3786,5.3837,5.3676,5.3249,5.3229,5.3229,5.3229,5.3229,5.3229,5.3229,5.3229,5.3229,5.3229,5.3229,5.3366,3.745,0.0,0.0,0.0,0.0,0.0,0.0,0.0,0.0,0.0,0.0,0.0,0.0,0.0,0.0,0.0,0.0,0.0,0.0,0.0,0.0,0.0,0.0,0.0,0.0,0.0,0.0,0.0,0.0,0.0,0.0,0.0,0.0,0.0,0.0,0.0,5.0302,5.0302,5.0302,5.0325,5.0325,5.0348,5.0371,5.0371,5.0457,5.0542,5.0603,5.0663,5.0702,5.0702,5.0702,5.0702,5.0702,5.0702,5.0702,5.0702,5.0702,5.0702,5.0702,5.0702,5.0702,5.0702,5.0702,5.0702,5.0702,5.0702,5.0702,5.0702,5.0702,5.0702,5.0702,5.0702,5.0702,5.0702,5.0702,5.0702,5.0702,5.0702,5.0702,5.0702,5.0952,5.1337,5.1818,5.2472,5.3106,5.3645,5.3991,5.4184,5.4184,5.4184,5.4184,5.4184,5.4184,5.4225,5.4322,5.4355,5.4478,5.4693,5.4762,5.4865,5.5021,5.4361,5.401,5.401,5.401,5.401,5.401,5.401,5.401,5.401,5.401,5.4186,3.7087,0.0,0.0,0.0,0.0,0.0,0.0,0.0,0.0,0.0,0.0,0.0,0.0,0.0,0.0,0.0,0.0,0.0,0.0,0.0,0.0,0.0,0.0,0.0,0.0,0.0,0.0,0.0,0.0,0.0,0.0,0.0,0.0,0.0,0.0,0.0,5.0236,5.0278,5.0325,0.0,5.0412,5.0435,5.05,5.0457,5.0478,5.0603,5.0663,5.0702,5.0702,5.0702,5.0702,5.0702,5.0702,5.0702,5.0702,5.0702,5.0702,5.0702,5.0702,5.0702,5.0702,5.0702,5.0702,5.0702,5.0702,5.0702,5.0702,5.0702,5.0702,5.0702,5.0702,5.0702,5.0702,5.0702,5.0702,5.0702,5.0702,5.0702,5.0721,5.0798,5.1395,5.1952,5.2125,5.3453,5.4511,5.4607,5.5222,5.5703,5.5703,5.5703,5.5703,5.5703,5.5703,5.5703,5.5703,5.5808,5.5946,5.6071,5.6222,5.6379,5.6558,5.506,5.4244,5.4244,5.4244,5.4244,5.4244,5.4244,5.4244,5.4244,5.4244,5.4654,0.0,0.0,0.0,0.0,0.0,0.0,0.0,0.0,0.0,0.0,0.0,0.0,0.0,0.0,0.0,0.0,0.0,0.0,0.0,0.0,0.0,0.0,0.0,0.0,0.0,0.0,0.0,0.0,0.0,0.0,0.0,0.0,0.0,0.0,0.0,4.9483,4.9884,5.0169,5.0302,0.0,5.0371,5.0435,5.05,5.0521,5.0603,5.0663,5.0683,5.0702,5.0702,5.0702,5.0702,5.0702,5.0702,5.0702,5.0702,5.0702,5.0702,5.0702,5.0702,5.0702,5.0702,5.0702,5.0702,5.0702,5.0702,5.0702,5.0702,5.0702,5.0702,5.0702,5.0702,5.0702,5.0702,5.0702,5.0702,5.0702,5.0702,5.0702,5.0894,5.1529,5.1779,5.2337,5.3703,5.4241,5.4703,5.5338,5.5588,5.5703,5.5703,5.5703,5.5703,5.5703,5.5703,5.5703,5.5703,5.5726,5.5808,5.593,5.6057,5.6211,5.6352,5.6152,5.604,5.604,5.604,5.604,5.604,5.604,5.604,5.604,5.604,5.6138,0.0,0.0,0.0,0.0,0.0,0.0,0.0,0.0,0.0,0.0,0.0,0.0,0.0,0.0,0.0,0.0,0.0,0.0,0.0,0.0,0.0,0.0,0.0,0.0,0.0,0.0,0.0,0.0,0.0,0.0,0.0,0.0,0.0,0.0,4.9209,4.9541,5.0032,5.0236,5.0348,5.0348,5.0457,5.0521,5.0603,5.0623,5.0663,5.0702,5.0702,5.0702,5.0702,5.0702,5.0702,5.0702,5.0702,5.0702,5.0702,5.0702,5.0702,5.0702,5.0702,5.0702,5.0702,5.0702,5.0702,5.0702,5.0702,5.0702,5.0702,5.0702,5.0702,5.0702,5.0702,5.0702,5.0702,5.0702,5.0702,5.0702,5.0702,5.0702,5.0933,5.1741,5.2241,5.2953,5.426,5.4818,5.5222,5.5645,5.5703,5.5703,5.5703,5.5703,5.5703,5.5703,5.5703,5.5726,5.5789,5.5808,5.588,5.6071,5.6158,5.6281,5.6439,5.6533,5.6606,5.6606,5.6606,5.6606,5.6606,5.6606,5.6606,5.6606,5.6606,5.6606,0.0,0.0,0.0,0.0,0.0,0.0,0.0,0.0,0.0,0.0,0.0,0.0,0.0,0.0,0.0,0.0,0.0,0.0,0.0,0.0,0.0,0.0,0.0,0.0,0.0,0.0,0.0,0.0,0.0,0.0,0.0,0.0,4.864,4.9221,4.9314,4.9674,5.0236,5.0348,5.0412,5.0412,5.054,5.0623,5.0702,5.0702,5.0702,5.0702,5.0702,5.0702,5.0702,5.0702,5.0702,5.0702,5.0702,5.0702,5.0702,5.0702,5.0702,5.0702,5.0702,5.0702,5.0702,5.0702,5.0702,5.0702,5.0702,5.0702,5.0702,5.0702,5.0702,5.0702,5.0702,5.0702,5.0702,5.0702,5.0702,5.0702,5.0702,5.0798,5.1144,5.1972,5.2953,5.3857,5.4587,5.5261,5.5703,5.5703,5.5703,5.5703,5.5703,5.5703,5.5703,5.5703,5.5703,5.5748,5.5864,5.5863,5.5959,5.6181,5.6242,5.6336,5.6517,5.6577,5.6606,5.6606,5.6606,5.6606,5.6606,5.6606,5.6606,5.6606,5.6606,5.6606,0.0,0.0,0.0,0.0,0.0,0.0,0.0,0.0,0.0,0.0,0.0,0.0,0.0,0.0,0.0,0.0,0.0,0.0,0.0,0.0,0.0,0.0,0.0,0.0,0.0,0.0,0.0,0.0,0.0,0.0,0.0,4.8586,4.8797,4.8963,4.9483,4.9784,4.9936,5.0259,5.0412,5.0412,5.054,5.0623,5.0702,5.0702,5.0702,5.0702,5.0702,5.0702,5.0702,5.0702,5.0702,5.0702,5.0702,5.0702,5.0702,5.0702,5.0702,5.0702,5.0702,5.0702,5.0702,5.0702,5.0702,5.0702,5.0702,5.0702,5.0702,5.0702,5.0702,5.0702,5.0702,5.0702,5.0702,5.0702,5.0702,5.0702,5.0702,5.1241,5.1991,5.2856,5.4299,5.5395,5.5511,5.5626,5.5703,5.5703,5.5703,5.5703,5.5703,5.5703,5.5703,5.5703,5.5703,5.5724,5.5726,5.5726,5.5728,5.5769,5.6005,5.6135,5.6166,5.6452,5.6606,5.6606,5.6606,5.6606,5.6606,5.6606,5.6606,5.6606,5.6606,5.6606,0.0,0.0,0.0,0.0,0.0,0.0,0.0,0.0,0.0,0.0,0.0,0.0,0.0,0.0,0.0,0.0,0.0,0.0,0.0,0.0,0.0,0.0,0.0,0.0,0.0,0.0,0.0,0.0,0.0,0.0,4.8621,4.8797,4.9062,4.9504,4.9765,0.0,5.0221,5.0416,5.0521,5.0582,5.0582,5.0623,5.0702,5.0702,5.0702,5.0702,5.0702,5.0702,5.0702,5.0702,5.0702,5.0702,5.0702,5.0702,5.0702,5.0702,5.0702,5.0702,5.0702,5.0702,5.0702,5.0702,5.0702,5.0702,5.0702,5.0702,5.0702,5.0702,5.0702,5.0702,5.0702,5.0702,5.0702,5.0702,5.0702,5.0818,5.1279,5.1664,5.2299,5.3664,5.4895,5.5703,5.5703,5.5703,5.5703,5.5703,5.5703,5.5703,5.5703,5.5703,5.5703,5.5703,5.5703,5.5747,5.5808,5.5808,5.5826,5.593,5.6029,5.6135,5.6202,5.6344,5.6478,5.6606,5.6606,5.6606,5.6606,5.6606,5.6606,5.6606,5.6606,5.6606,0.0,0.0,0.0,0.0,0.0,0.0,0.0,0.0,0.0,0.0,0.0,0.0,0.0,0.0,0.0,0.0,0.0,0.0,0.0,0.0,0.0,0.0,0.0,0.0,0.0,0.0,0.0,0.0,0.0,0.0,4.8897,4.9043,4.9416,5.0019,5.0087,5.0245,5.0521,5.0582,5.0623,5.0702,5.0643,5.0643,5.0702,5.0702,5.0702,5.0702,5.0702,5.0702,5.0702,5.0702,5.0702,5.0702,5.0702,5.0702,5.0702,5.0702,5.0702,5.0702,5.0702,5.0702,5.0702,5.0702,5.0702,5.0702,5.0702,5.0702,5.0702,5.0702,5.0702,5.0702,5.0702,5.0702,5.0702,5.0702,5.0856,5.1221,5.2049,5.2414,5.301,5.4511,5.528,5.5703,5.5703,5.5703,5.5703,5.5703,5.5703,5.5703,5.5703,5.5703,5.5703,5.5703,5.5703,5.5728,5.5845,5.5864,5.5879,5.599,5.6015,5.6084,5.6191,5.6261,5.6379,5.6528,5.6577,5.6606,5.6606,5.6606,5.6606,5.6606,5.6606,5.6606,0.0,0.0,0.0,0.0,0.0,0.0,0.0,0.0,0.0,0.0,0.0,0.0,0.0,0.0,0.0,0.0,0.0,0.0,0.0,0.0,0.0,0.0,0.0,0.0,0.0,0.0,0.0,0.0,0.0,0.0,4.8897,4.9493,4.9917,5.0092,5.0333,5.0521,5.0603,5.0603,5.0623,5.0702,5.0702,5.0702,5.0702,5.0702,5.0702,5.0702,5.0702,5.0702,5.0702,5.0702,5.0702,5.0702,5.0702,5.0702,5.0702,5.0702,5.0702,5.0702,5.0702,5.0702,5.0702,5.0702,5.0702,5.0702,5.0702,5.0702,5.0702,5.0702,5.0702,5.0702,5.0702,5.0702,5.0702,5.0702,5.1279,5.2087,5.2953,5.378,5.4626,5.5472,5.5665,5.5703,5.5703,5.5703,5.5703,5.5703,5.5703,5.5703,5.5703,5.5703,5.5703,5.5703,5.5703,5.5684,5.5705,5.5705,5.5705,5.5726,5.5845,5.5913,5.5913,5.6158,5.6297,5.6316,5.6503,5.6606,5.6606,5.6606,5.6606,5.6606,5.6606,5.6606,0.0,0.0,0.0,0.0,0.0,0.0,0.0,0.0,0.0,0.0,0.0,0.0,0.0,0.0,0.0,0.0,0.0,0.0,0.0,0.0,0.0,0.0,0.0,0.0,0.0,0.0,0.0,0.0,0.0,0.0,4.9265,4.9746,5.0178,5.0483,5.0584,5.0643,5.0663,5.0663,5.0682,5.0702,5.0702,5.0702,5.0702,5.0702,5.0702,5.0702,5.0702,5.0702,5.0702,5.0702,5.0702,5.0702,5.0702,5.0702,5.0702,5.0702,5.0702,5.0702,5.0702,5.0702,5.0702,5.0702,5.0702,5.0702,5.0702,5.0702,5.0702,5.0702,5.0702,5.0702,5.0702,5.0702,5.0818,5.1356,5.2125,5.2972,5.3857,5.4684,5.5357,5.5645,5.5703,5.5703,5.5703,5.5703,5.5703,5.5703,5.5703,5.5703,5.5703,5.5703,5.5703,5.5703,5.5703,5.5703,5.5703,5.5703,5.5747,5.5827,5.588,5.5975,5.6146,5.6252,5.6352,5.6497,5.6558,5.6606,5.6606,5.6606,5.6606,5.6606,5.6606,5.6606,0.0,0.0,0.0,0.0,0.0,0.0,0.0,0.0,0.0,0.0,0.0,0.0,0.0,0.0,0.0,0.0,0.0,0.0,0.0,0.0,0.0,0.0,0.0,0.0,0.0,0.0,0.0,0.0,0.0,0.0,4.9664,5.0043,5.0399,5.0683,5.0702,5.0702,5.0702,5.0702,5.0702,5.0702,5.0702,5.0702,5.0702,5.0702,5.0702,5.0702,5.0702,5.0702,5.0702,5.0702,5.0702,5.0702,5.0702,5.0702,5.0702,5.0702,5.0702,5.0702,5.0702,5.0702,5.0702,5.0702,5.0702,5.0702,5.0702,5.0702,5.0702,5.0702,5.0702,5.0702,5.0702,5.0702,5.0971,5.2087,5.2779,5.351,5.4664,5.5318,5.5703,5.5703,5.5703,5.5703,5.5703,5.5703,5.5703,5.5703,5.5703,5.5703,5.5703,5.5703,5.5703,5.5703,5.5703,5.5703,5.5703,5.5703,5.5768,5.5898,5.5915,5.6005,5.6212,5.627,5.6359,5.6497,5.6577,5.6606,5.6606,5.6606,5.6606,5.6606,5.6606,5.6606,0.0,0.0,0.0,0.0,0.0,0.0,0.0,0.0,0.0,0.0,0.0,0.0,0.0,0.0,0.0,0.0,0.0,0.0,0.0,0.0,0.0,0.0,0.0,0.0,0.0,0.0,0.0,0.0,0.0,4.958,4.9968,5.0377,5.0623,5.0702,5.0702,5.0702,5.0702,5.0702,5.0702,5.0702,5.0702,5.0702,5.0702,5.0702,5.0702,5.0702,5.0702,5.0702,5.0702,5.0702,5.0702,5.0702,5.0702,5.0702,5.0702,5.0702,5.0702,5.0702,5.0702,5.0702,5.0702,5.0702,5.0702,5.0702,5.0702,5.0702,5.0702,5.0702,5.0702,5.0702,5.0702,5.0702,5.1106,5.2799,5.3203,5.3664,5.5338,5.5703,5.5703,5.5703,5.5703,5.5703,5.5703,5.5703,5.5703,5.5703,5.5703,5.5703,5.5703,5.5703,5.5703,5.5703,5.5703,5.5703,5.5724,5.5724,5.5749,5.5896,5.5913,5.5975,5.6097,5.6242,5.6316,5.6316,5.6503,5.6606,5.6606,5.6606,5.6606,5.6606,5.6606,5.6606,3.8872,0.0,0.0,0.0,0.0,0.0,0.0,0.0,0.0,0.0,0.0,0.0,0.0,0.0,0.0,0.0,0.0,0.0,0.0,0.0,0.0,0.0,0.0,0.0,0.0,0.0,0.0,0.0,4.9145,4.9532,4.97,5.0336,5.0663,5.0702,5.0702,5.0702,5.0702,5.0702,5.0702,5.0702,5.0702,5.0702,5.0702,5.0702,5.0702,5.0702,5.0702,5.0702,5.0702,5.0702,5.0702,5.0702,5.0702,5.0702,5.0702,5.0702,5.0702,5.0702,5.0702,5.0702,5.0702,5.0702,5.0702,5.0702,5.0702,5.0702,5.0702,5.0702,5.0702,5.0702,5.0702,5.0702,5.1106,5.2799,5.3203,5.3664,5.5338,5.5703,5.5703,5.5703,5.5703,5.5703,5.5703,5.5703,5.5703,5.5703,5.5703,5.5703,5.5703,5.5703,5.5703,5.5703,5.5703,5.5728,5.5845,5.5826,5.5927,5.6169,5.6181,5.6271,5.6459,5.6497,5.6528,5.6528,5.6577,5.6606,5.6606,5.6606,5.6606,5.6606,5.6606,5.6606,0.0,0.0,0.0,0.0,0.0,0.0,4.418,4.5,0.0,0.0,0.0,0.0,0.0,0.0,0.0,0.0,0.0,0.0,0.0,0.0,0.0,0.0,0.0,0.0,0.0,0.0,0.0,0.0,4.9132,4.9522,4.9834,5.038,5.0702,5.0702,5.0702,5.0702,5.0702,5.0702,5.0702,5.0702,5.0702,5.0702,5.0702,5.0702,5.0702,5.0702,5.0702,5.0702,5.0702,5.0702,5.0702,5.0702,5.0702,5.0702,5.0702,5.0702,5.0702,5.0702,5.0702,5.0702,5.0702,5.0702,5.0702,5.0702,5.0702,5.0702,5.0702,5.0702,5.0702,5.0702,5.0702,5.0702,5.1106,5.2799,5.3203,5.3664,5.5338,5.5703,5.5703,5.5703,5.5703,5.5703,5.5703,5.5703,5.5703,5.5703,5.5703,5.5703,5.5703,5.5703,5.5703,5.5703,5.5703,5.5748,5.5898,5.5915,5.6001,5.6279,5.6288,5.6386,5.6582,5.6606,5.6606,5.6606,5.6606,5.6606,5.6606,5.6606,5.6606,5.6606,5.6606,5.6606,0.0,0.0,0.0,0.0,0.0,0.0,4.4766,4.5714,4.6457,0.0,0.0,0.0,0.0,0.0,0.0,0.0,0.0,0.0,0.0,0.0,0.0,0.0,0.0,0.0,0.0,0.0,4.8874,4.9038,4.9182,4.9541,5.0183,5.0504,5.0702,5.0702,5.0702,5.0702,5.0702,5.0702,5.0702,5.0702,5.0702,5.0702,5.0702,5.0702,5.0702,5.0702,5.0702,5.0702,5.0702,5.0702,5.0702,5.0702,5.0702,5.0702,5.0702,5.0702,5.0702,5.0702,5.0702,5.0702,5.0702,5.0702,5.0702,5.0702,5.0702,5.0702,5.0702,5.0702,5.0702,5.0702,5.0702,5.0702,5.1106,5.2799,5.3203,5.3664,5.5338,5.5703,5.5703,5.5703,5.5703,5.5703,5.5703,5.5703,5.5703,5.5703,5.5703,5.5703,5.5703,5.5705,5.5726,5.5726,5.5747,5.5808,5.593,5.5927,5.6063,5.6316,5.6324,5.6413,5.6582,5.6606,5.6606,5.6606,5.6606,5.6606,5.6606,5.6606,5.6606,5.6606,5.6606,5.6606,0.0,0.0,0.0,0.0,0.0,0.0,4.3875,4.4376,4.4729,0.0,0.0,0.0,0.0,0.0,0.0,0.0,0.0,0.0,0.0,0.0,0.0,0.0,0.0,0.0,0.0,0.0,4.8822,4.8839,4.937,4.9838,5.0183,5.0504,5.0702,5.0702,5.0702,5.0702,5.0702,5.0702,5.0702,5.0702,5.0702,5.0702,5.0702,5.0702,5.0702,5.0702,5.0702,5.0702,5.0702,5.0702,5.0702,5.0702,5.0702,5.0702,5.0702,5.0702,5.0702,5.0702,5.0702,5.0702,5.0702,5.0702,5.0702,5.0702,5.0702,5.0702,5.0702,5.0702,5.0702,5.0702,5.0702,5.0702,5.1106,5.2799,5.3203,5.3664,5.5338,5.5703,5.5703,5.5703,5.5703,5.5703,5.5703,5.5703,5.5703,5.5703,5.5703,5.5703,5.5703,5.5789,5.5863,5.5863,5.5959,5.6071,5.6202,5.6212,5.6299,5.6528,5.6533,5.6558,5.6606,5.6606,5.6606,5.6606,5.6606,5.6606,5.6606,5.6606,5.6606,5.6606,5.6606,5.6606,0.0,0.0,0.0,4.1181,0.0,0.0,0.0,4.4655,4.4896,4.5732,0.0,0.0,0.0,0.0,0.0,0.0,0.0,0.0,0.0,0.0,0.0,0.0,0.0,0.0,0.0,0.0,4.8909,4.9113,4.9665,5.0062,5.0183,5.0504,5.0702,5.0702,5.0702,5.0702,5.0702,5.0702,5.0702,5.0702,5.0702,5.0702,5.0702,5.0702,5.0702,5.0702,5.0702,5.0702,5.0702,5.0702,5.0702,5.0702,5.0702,5.0702,5.0702,5.0702,5.0702,5.0702,5.0702,5.0702,5.0702,5.0702,5.0702,5.0702,5.0702,5.0702,5.0702,5.0702,5.0702,5.0702,5.0702,5.0991,5.1625,5.2895,5.353,5.4184,5.5434,5.5748,5.5808,5.5808,5.5844,5.5863,5.5726,5.5703,5.5703,5.5703,5.5768,5.5808,5.5808,5.5913,5.6005,5.6005,5.6057,5.6146,5.6279,5.6288,5.6386,5.6582,5.6606,5.6606,5.6606,5.6606,5.6606,5.6606,5.6606,5.6606,5.6606,5.6606,5.6606,5.6606,5.6606,5.6606,0.0,0.0,0.0,0.0,0.0,4.2389,0.0,0.0,0.0,4.5881,0.0,0.0,0.0,0.0,0.0,0.0,0.0,0.0,0.0,0.0,0.0,0.0,0.0,0.0,0.0,0.0,4.9127,4.9384,4.991,5.0206,5.0206,5.0504,5.0702,5.0702,5.0702,5.0702,5.0702,5.0702,5.0702,5.0702,5.0702,5.0702,5.0702,5.0702,5.0702,5.0702,5.0702,5.0702,5.0702,5.0702,5.0702,5.0702,5.0702,5.0702,5.0702,5.0702,5.0702,5.0702,5.0702,5.0702,5.0702,5.0702,5.0702,5.0702,5.0702,5.0702,5.0702,5.0702,5.0702,5.0702,5.0702,5.1298,5.2125,5.2991,5.3876,5.4743,5.5574,5.5827,5.5896,5.593,5.6035,5.6015,5.5808,5.5769,5.5769,5.5769,5.5863,5.5946,5.5946,5.6063,5.6135,5.6135,5.6178,5.6251,5.6352,5.6352,5.6439,5.6582,5.6606,5.6606,5.6606,5.6606,5.6606,5.6606,5.6606,5.6606,5.6606,5.6606,5.6606,5.6606,5.6606,5.6606,0.0,0.0,0.0,0.0,4.2649,0.0,0.0,0.0,4.4172,4.4265,0.0,0.0,0.0,0.0,0.0,0.0,0.0,0.0,0.0,0.0,0.0,0.0,0.0,0.0,0.0,0.0,0.0,4.9415,4.991,5.0206,5.0206,5.0504,5.0702,5.0702,5.0702,5.0702,5.0702,5.0702,5.0702,5.0702,5.0702,5.0702,5.0702,5.0702,5.0702,5.0702,5.0702,5.0702,5.0702,5.0702,5.0702,5.0702,5.0702,5.0702,5.0702,5.0702,5.0702,5.0702,5.0702,5.0702,5.0702,5.0702,5.0702,5.0702,5.0702,5.0702,5.0702,5.0702,5.0702,5.0702,5.0702,5.1298,5.2125,5.2991,5.3876,5.4765,5.569,5.5898,5.5946,5.6044,5.6084,5.6084,5.6057,5.6044,5.6044,5.6044,5.6057,5.6071,5.6071,5.6191,5.627,5.627,5.6439,5.6553,5.6558,5.6577,5.6582,5.6606,5.6606,5.6606,5.6606,5.6606,5.6606,5.6606,5.6606,5.6606,5.6606,5.6606,5.6606,5.6606,5.6606,5.6606,0.0,0.0,0.0,0.0,0.0,0.0,0.0,0.0,4.4005,0.0,0.0,0.0,0.0,0.0,0.0,0.0,0.0,0.0,0.0,0.0,0.0,0.0,0.0,0.0,0.0,0.0,0.0,0.0,0.0,5.0483,5.0483,5.0624,5.0702,5.0702,5.0702,5.0702,5.0702,5.0702,5.0702,5.0702,5.0702,5.0702,5.0702,5.0702,5.0702,5.0702,5.0702,5.0702,5.0702,5.0702,5.0702,5.0702,5.0702,5.0702,5.0702,5.0702,5.0702,5.0702,5.0702,5.0702,5.0702,5.0702,5.0702,5.0702,5.0702,5.0702,5.0702,5.0702,5.0702,5.0798,5.1279,5.2029,5.2876,5.376,5.4651,5.5421,5.5821,5.6035,5.6146,5.6222,5.6309,5.6383,5.6383,5.623,5.6097,5.6097,5.6158,5.6222,5.6222,5.6371,5.6472,5.6472,5.6553,5.6606,5.6606,5.6606,5.6606,5.6606,5.6606,5.6606,5.6606,5.6606,5.6606,5.6606,5.6606,5.6606,5.6606,5.6606,5.6606,5.6606,5.6606,5.6606,4.2289,0.0,0.0,0.0,0.0,0.0,0.0,0.0,0.0,0.0,0.0,0.0,0.0,0.0,0.0,0.0,0.0,0.0,0.0,0.0,0.0,0.0,0.0,0.0,0.0,0.0,0.0,0.0,4.971,0.0,5.0683,5.0702,5.0702,5.0702,5.0702,5.0702,5.0702,5.0702,5.0702,5.0702,5.0702,5.0702,5.0702,5.0702,5.0702,5.0702,5.0702,5.0702,5.0702,5.0702,5.0702,5.0702,5.0702,5.0702,5.0702,5.0702,5.0702,5.0702,5.0702,5.0702,5.0702,5.0702,5.0702,5.0702,5.0702,5.0702,5.0702,5.0702,5.0856,5.1164,5.176,5.2722,5.3722,5.4357,5.5191,5.5863,5.5946,5.611,5.627,5.6352,5.6503,5.6606,5.6606,5.6391,5.6241,5.6241,5.6318,5.6386,5.6386,5.6503,5.6606,5.6606,5.6606,5.6606,5.6606,5.6606,5.6606,5.6606,5.6606,5.6606,5.6606,5.6606,5.6606,5.6606,5.6606,5.6606,5.6606,5.6606,5.6606,5.6606,5.6606,5.6606,0.0,0.0,0.0,0.0,0.0,0.0,0.0,0.0,4.4005,0.0,0.0,0.0,0.0,0.0,0.0,0.0,0.0,0.0,0.0,0.0,0.0,0.0,0.0,0.0,0.0,0.0,0.0,0.0,4.9276,0.0,5.0644,5.0702,5.0702,5.0702,5.0702,5.0702,5.0702,5.0702,5.0702,5.0702,5.0702,5.0702,5.0702,5.0702,5.0702,5.0702,5.0702,5.0702,5.0702,5.0702,5.0702,5.0702,5.0702,5.0702,5.0702,5.0702,5.0702,5.0702,5.0702,5.0702,5.0702,5.0702,5.0702,5.0702,5.0702,5.0702,5.0702,5.0702,5.126,5.1875,5.1895,5.3164,5.4472,5.4491,5.5107,5.5769,5.6049,5.6097,5.62,5.6523,5.6606,5.6606,5.6606,5.6582,5.6582,5.6582,5.6582,5.6582,5.6582,5.6606,5.6606,5.6606,5.6606,5.6606,5.6606,5.6606,5.6606,5.6606,5.6606,5.6606,5.6606,5.6606,5.6606,5.6606,5.6606,5.6606,5.6606,5.6606,5.6606,5.6606,5.6606,5.6606,0.0,0.0,4.4221,4.4048,0.0,0.0,0.0,0.0,0.0,0.0,0.0,0.0,0.0,0.0,0.0,0.0,0.0,0.0,0.0,0.0,0.0,0.0,0.0,0.0,0.0,0.0,0.0,4.7322,4.846,4.9332,0.0,5.0375,5.0702,5.0702,5.0702,5.0702,5.0702,5.0702,5.0702,5.0702,5.0702,5.0702,5.0702,5.0702,5.0702,5.0702,5.0702,5.0702,5.0702,5.0702,5.0702,5.0702,5.0702,5.0702,5.0702,5.0702,5.0702,5.0702,5.0702,5.0702,5.0702,5.0702,5.0702,5.0702,5.0702,5.0702,5.0798,5.1337,5.1702,5.2183,5.3318,5.4068,5.4626,5.5164,5.5556,5.5844,5.5962,5.6049,5.6122,5.6241,5.6281,5.6281,5.6281,5.6281,5.63,5.6379,5.6393,5.6393,5.6393,5.6528,5.6606,5.6606,5.6606,5.6606,5.6606,5.6606,5.6606,5.6606,5.6606,5.6606,5.6606,5.6606,5.6606,5.6606,5.6606,5.6606,5.6606,5.6606,5.6606,5.6606,5.6606,5.6606,4.4624,4.4546,0.0,0.0,4.4221,0.0,4.4374,0.0,0.0,0.0,0.0,0.0,0.0,0.0,0.0,0.0,0.0,0.0,0.0,0.0,0.0,0.0,0.0,0.0,0.0,0.0,4.5959,4.6332,4.7609,4.8659,0.0,0.0,5.0584,5.0702,5.0702,5.0702,5.0702,5.0702,5.0702,5.0702,5.0702,5.0702,5.0702,5.0702,5.0702,5.0702,5.0702,5.0702,5.0702,5.0702,5.0702,5.0702,5.0702,5.0702,5.0702,5.0702,5.0702,5.0702,5.0702,5.0702,5.0702,5.0702,5.0702,5.0702,5.0702,5.0702,5.0856,5.1683,5.2125,5.2702,5.4126,5.4703,5.5049,5.5568,5.5768,5.5845,5.5898,5.5959,5.6029,5.6084,5.6097,5.6097,5.6097,5.6057,5.6071,5.6202,5.6232,5.6232,5.6232,5.6327,5.6432,5.6497,5.6497,5.6528,5.6582,5.6606,5.6606,5.6606,5.6606,5.6606,5.6606,5.6606,5.645,5.6138,5.645,5.645,5.6138,5.645,5.6606,5.6606,5.6606,5.6606]},{"header":{"parameterUnit":"m.s-1","parameterCategory":1,"la1":30.6,"la2":29.2853,"lo1":-89.7004,"lo2":-87.6739,"dy":0.0162,"dx":0.0183,"nx":112,"ny":82,"refTime":"2023-10-14T18:00:00:Z","depth":0,"parameterNumber":3,"parameterNumberName":"V-component_of_WINDS"},"data":[0.0,0.0,0.0,0.0,0.0,0.0,0.0,0.0,0.0,0.0,0.0,0.0,0.0,0.0,0.0,0.0,0.0,0.0,0.0,0.0,0.0,0.0,0.0,0.0,0.0,0.0,0.0,0.0,0.0,0.0,0.0,0.0,0.0,0.0,0.0,0.0,0.0,0.0,0.0,0.0,0.0,0.0,0.0,0.0,0.0,0.0,0.0,0.0,0.0,0.0,0.0,0.0,0.0,0.0,0.0,0.0,0.0,0.0,0.0,0.0,0.0,0.0,0.0,0.0,0.0,0.0,0.0,0.0,0.0,0.0,0.0,0.0,0.0,0.0,0.0,0.0,0.0,0.0,0.0,0.0,0.0,0.0,0.0,0.0,0.0,0.0,0.0,0.0,0.0,0.0,0.0,-0.5358,-0.6335,-0.6987,-0.7068,-0.8013,-0.8674,-0.8751,0.0,0.0,0.0,0.0,0.0,0.0,0.0,0.0,0.0,0.0,0.0,0.0,0.0,0.0,0.0,0.0,0.0,0.0,0.0,0.0,0.0,0.0,0.0,0.0,0.0,0.0,0.0,0.0,0.0,0.0,0.0,0.0,0.0,0.0,0.0,0.0,0.0,0.0,0.0,0.0,0.0,0.0,0.0,0.0,0.0,0.0,0.0,0.0,0.0,0.0,0.0,0.0,0.0,0.0,0.0,0.0,0.0,0.0,0.0,0.0,0.0,0.0,0.0,0.0,0.0,0.0,0.0,0.0,0.0,0.0,0.0,0.0,0.0,0.0,0.0,0.0,0.0,0.0,0.0,0.0,0.0,0.0,0.0,0.0,0.0,0.0,0.0,0.0,0.0,0.0,0.0,0.0,0.0,0.0,0.0,0.0,0.0,0.0,0.0,0.0,0.0,0.0,0.0,0.0,-0.5349,-0.5368,-0.6096,-0.674,-0.7312,-0.7889,-0.8422,-0.8894,0.0,0.0,0.0,0.0,0.0,0.0,0.0,0.0,0.0,0.0,0.0,0.0,0.0,0.0,0.0,0.0,0.0,0.0,0.0,0.0,0.0,0.0,0.0,0.0,0.0,0.0,0.0,0.0,0.0,0.0,0.0,0.0,0.0,0.0,0.0,0.0,0.0,0.0,0.0,0.0,0.0,0.0,0.0,0.0,0.0,0.0,0.0,0.0,0.0,0.0,0.0,0.0,0.0,0.0,0.0,0.0,0.0,0.0,0.0,0.0,0.0,0.0,0.0,0.0,0.0,0.0,0.0,0.0,0.0,0.0,0.0,0.0,0.0,0.0,0.0,0.0,0.0,0.0,0.0,0.0,0.0,0.0,0.0,0.0,0.0,0.0,0.0,0.0,0.0,0.0,0.0,0.0,0.0,0.0,0.0,0.0,0.0,0.0,0.0,0.0,0.0,0.0,0.0,-0.5466,-0.5494,-0.5559,-0.6439,-0.7147,-0.7399,-0.8237,-0.8818,-0.895,-0.893,0.0,0.0,0.0,0.0,0.0,0.0,0.0,0.0,0.0,0.0,0.0,0.0,0.0,0.0,0.0,0.0,0.0,0.0,0.0,0.0,0.0,0.0,0.0,0.0,0.0,0.0,0.0,0.0,0.0,0.0,0.0,0.0,0.0,0.0,0.0,0.0,0.0,0.0,0.0,0.0,0.0,0.0,0.0,0.0,0.0,0.0,0.0,0.0,0.0,0.0,0.0,0.0,0.0,0.0,0.0,0.0,0.0,0.0,0.0,0.0,0.0,0.0,0.0,0.0,0.0,0.0,0.0,0.0,0.0,0.0,0.0,0.0,0.0,0.0,0.0,0.0,0.0,0.0,0.0,0.0,0.0,0.0,0.0,0.0,0.0,0.0,0.0,0.0,0.0,0.0,0.0,0.0,0.0,0.0,0.0,0.0,0.0,0.0,0.0,0.0,0.0,0.0,-0.5507,-0.5629,-0.5725,-0.6689,-0.7397,-0.7569,-0.851,-0.9145,-0.911,-0.9048,0.0,0.0,0.0,0.0,0.0,0.0,0.0,0.0,0.0,0.0,0.0,0.0,0.0,0.0,0.0,0.0,0.0,0.0,0.0,0.0,0.0,0.0,0.0,0.0,0.0,0.0,0.0,0.0,0.0,0.0,0.0,0.0,0.0,0.0,0.0,0.0,0.0,0.0,0.0,0.0,0.0,0.0,0.0,0.0,0.0,0.0,0.0,0.0,0.0,0.0,0.0,0.0,0.0,0.0,0.0,0.0,0.0,0.0,0.0,0.0,0.0,0.0,0.0,0.0,0.0,0.0,0.0,0.0,0.0,0.0,0.0,0.0,0.0,0.0,0.0,0.0,0.0,0.0,0.0,0.0,0.0,0.0,0.0,0.0,0.0,0.0,0.0,0.0,0.0,0.0,0.0,0.0,0.0,0.0,0.0,0.0,0.0,0.0,0.0,0.0,0.0,0.0,-0.5722,-0.5725,-0.5733,-0.6422,-0.7115,-0.7727,-0.8275,-0.8857,-0.9236,-0.9129,0.0,0.0,0.0,0.0,0.0,0.0,0.0,0.0,0.0,0.0,0.0,0.0,0.0,0.0,0.0,0.0,0.0,0.0,0.0,0.0,0.0,0.0,0.0,0.0,0.0,0.0,0.0,0.0,0.0,0.0,0.0,0.0,0.0,0.0,0.0,0.0,0.0,0.0,0.0,0.0,0.0,0.0,0.0,0.0,0.0,0.0,0.0,0.0,0.0,0.0,0.0,0.0,0.0,0.0,0.0,0.0,0.0,0.0,0.0,0.0,0.0,0.0,0.0,0.0,0.0,0.0,0.0,0.0,0.0,0.0,0.0,0.0,0.0,0.0,0.0,0.0,0.0,0.0,0.0,0.0,0.0,0.0,0.0,0.0,0.0,0.0,0.0,0.0,0.0,0.0,0.0,0.0,0.0,0.0,0.0,0.0,0.0,0.0,0.0,0.0,0.0,0.0,-0.5733,-0.5733,0.0,-0.6343,-0.7041,-0.7746,-0.8392,-0.897,-0.9452,0.0,0.0,0.0,0.0,0.0,0.0,0.0,0.0,0.0,0.0,0.0,0.0,0.0,0.0,0.0,0.0,0.0,0.0,0.0,0.0,0.0,0.0,0.0,0.0,0.0,0.0,0.0,0.0,0.0,0.0,0.0,0.0,0.0,0.0,0.0,0.0,0.0,0.0,0.0,0.0,0.0,0.0,0.0,0.0,0.0,0.0,0.0,0.0,0.0,0.0,0.0,0.0,0.0,0.0,0.0,0.0,0.0,0.0,0.0,0.0,0.0,0.0,0.0,0.0,0.0,0.0,0.0,0.0,0.0,0.0,0.0,0.0,0.0,0.0,0.0,0.0,0.0,0.0,0.0,0.0,0.0,0.0,0.0,0.0,0.0,0.0,0.0,0.0,0.0,0.0,0.0,0.0,0.0,0.0,0.0,0.0,0.0,0.0,0.0,0.0,0.0,0.0,-0.5703,-0.5733,-0.5733,0.0,-0.6169,-0.6782,-0.7746,-0.8273,-0.8814,-0.9573,0.0,0.0,0.0,0.0,0.0,0.0,0.0,0.0,0.0,0.0,0.0,0.0,0.0,0.0,0.0,0.0,0.0,0.0,0.0,0.0,0.0,0.0,0.0,0.0,0.0,0.0,0.0,0.0,0.0,0.0,0.0,0.0,0.0,0.0,0.0,0.0,0.0,0.0,0.0,0.0,0.0,0.0,0.0,0.0,0.0,0.0,0.0,0.0,0.0,0.0,0.0,0.0,0.0,0.0,0.0,0.0,0.0,0.0,0.0,0.0,0.0,0.0,0.0,0.0,0.0,0.0,0.0,0.0,0.0,0.0,0.0,0.0,0.0,0.0,0.0,0.0,0.0,0.0,0.0,0.0,0.0,0.0,0.0,0.0,0.0,0.0,0.0,0.0,0.0,0.0,0.0,0.0,0.0,0.0,0.0,0.0,0.0,0.0,0.0,0.0,0.0,0.0,-0.5614,-0.5733,-0.5733,-0.5733,-0.5733,-0.6257,-0.7658,-0.7834,-0.8289,0.0,0.0,0.0,0.0,0.0,0.0,0.0,0.0,0.0,0.0,0.0,0.0,0.0,0.0,0.0,0.0,0.0,0.0,0.0,0.0,0.0,0.0,0.0,0.0,0.0,0.0,0.0,0.0,0.0,0.0,0.0,0.0,0.0,0.0,0.0,0.0,0.0,0.0,0.0,0.0,0.0,0.0,0.0,0.0,0.0,0.0,0.0,0.0,0.0,0.0,0.0,0.0,0.0,0.0,0.0,0.0,0.0,0.0,0.0,0.0,0.0,0.0,0.0,0.0,0.0,0.0,0.0,0.0,0.0,0.0,0.0,0.0,0.0,0.0,0.0,0.0,0.0,0.0,0.0,0.0,0.0,0.0,0.0,0.0,0.0,0.0,0.0,0.0,0.0,0.0,0.0,0.0,0.0,0.0,0.0,0.0,0.0,0.0,0.0,0.0,0.0,0.0,0.0,0.0,-0.5191,-0.5733,-0.5733,-0.5733,-0.6257,-0.7658,-0.7834,-0.8428,-0.978,0.0,0.0,0.0,0.0,0.0,0.0,0.0,0.0,0.0,0.0,0.0,0.0,0.0,0.0,0.0,0.0,0.0,0.0,0.0,0.0,0.0,0.0,0.0,0.0,0.0,0.0,0.0,0.0,0.0,0.0,0.0,0.0,0.0,0.0,0.0,0.0,0.0,0.0,0.0,0.0,0.0,0.0,0.0,0.0,0.0,0.0,0.0,0.0,0.0,0.0,0.0,0.0,0.0,0.0,0.0,0.0,0.0,0.0,0.0,0.0,0.0,0.0,0.0,0.0,0.0,0.0,0.0,0.0,0.0,0.0,0.0,0.0,0.0,0.0,0.0,0.0,0.0,0.0,0.0,0.0,0.0,0.0,0.0,0.0,0.0,0.0,0.0,0.0,0.0,0.0,0.0,0.0,0.0,0.0,0.0,0.0,0.0,0.0,0.0,0.0,0.0,0.0,-0.3918,-0.4919,-0.5733,-0.5733,-0.5733,-0.6257,-0.7658,-0.7834,-0.8448,-0.9951,0.0,0.0,0.0,0.0,0.0,0.0,0.0,0.0,0.0,0.0,0.0,0.0,0.0,0.0,0.0,0.0,0.0,0.0,0.0,0.0,0.0,0.0,0.0,0.0,0.0,0.0,0.0,0.0,0.0,0.0,0.0,0.0,0.0,0.0,0.0,0.0,0.0,0.0,0.0,0.0,0.0,0.0,0.0,0.0,0.0,0.0,0.0,0.0,0.0,0.0,0.0,0.0,0.0,0.0,0.0,0.0,0.0,0.0,0.0,0.0,0.0,0.0,0.0,0.0,0.0,0.0,0.0,0.0,0.0,0.0,0.0,0.0,0.0,0.0,0.0,0.0,0.0,0.0,0.0,0.0,0.0,0.0,0.0,0.0,0.0,0.0,0.0,0.0,0.0,0.0,0.0,0.0,0.0,0.0,0.0,0.0,0.0,0.0,0.0,0.0,0.0,0.0,-0.3742,-0.4741,-0.5552,-0.5644,-0.5644,-0.6257,-0.7658,-0.7834,-0.8448,-0.9951,0.0,0.0,0.0,0.0,0.0,0.0,0.0,0.0,0.0,0.0,0.0,0.0,0.0,0.0,0.0,0.0,0.0,0.0,0.0,0.0,0.0,0.0,0.0,0.0,0.0,0.0,0.0,0.0,0.0,0.0,0.0,0.0,0.0,0.0,0.0,0.0,0.0,0.0,0.0,0.0,0.0,0.0,0.0,0.0,0.0,0.0,0.0,0.0,0.0,0.0,0.0,0.0,0.0,0.0,0.0,0.0,0.0,0.0,0.0,0.0,-0.0078,0.0,0.0,0.0,0.0,0.0,0.0,0.0,0.0,0.0,0.0,0.0,0.0,0.0,0.0,0.0,0.0,0.0,0.0,0.0,0.0,0.0,0.0,0.0,0.0,0.0,0.0,0.0,0.0,0.0,0.0,0.0,0.0,0.0,0.0,0.0,0.0,0.0,0.0,0.0,0.0,0.0,-0.2593,-0.3309,-0.4115,-0.501,-0.5191,-0.5894,-0.7658,-0.7834,-0.8448,-0.9951,0.0,0.0,0.0,0.0,0.0,0.0,0.0,0.0,0.0,0.0,0.0,0.0,0.0,0.0,0.0,0.0,0.0,0.0,0.0,0.0,0.0,0.0,0.0,0.0,0.0,0.0,0.0,0.0,0.0,0.0,0.0,0.0,0.0,0.0,0.0,0.0,0.0,0.0,0.0,0.0,0.0,0.0,0.0,0.0,0.0,0.0,0.0,0.0,0.0,0.0,0.0,0.0,0.0,0.0,0.0,0.0,0.0,0.0,0.0,0.0,0.0,-0.0785,0.0,0.0,0.0,0.0,0.0,0.0,0.0,0.0,0.0,0.0,0.0,0.0,0.0,0.0,0.0,0.0,0.0,0.0,0.0,0.0,0.0,0.0,0.0,0.0,0.0,0.0,0.0,0.0,0.0,0.0,0.0,0.0,0.0,0.0,0.0,0.0,0.0,0.0,0.0,0.0,-0.179,-0.2684,-0.3578,-0.4565,-0.4654,-0.5364,-0.7129,-0.7305,-0.8009,-0.9689,-0.9777,0.0,0.0,0.0,0.0,0.0,0.0,0.0,0.0,0.0,0.0,0.0,0.0,0.0,0.0,0.0,0.0,0.0,0.0,0.0,0.0,0.0,0.0,0.0,0.0,0.0,0.0,0.0,0.0,0.0,0.0,0.0,0.0,0.0,0.0,0.0,0.0,0.0,0.0,0.0,0.0,0.0,0.0,0.0,0.0,0.0,0.0,0.0,0.0,0.0,0.0,0.0,0.0,0.0,0.0,0.4144,0.3986,0.383,0.3287,0.2431,0.0549,-0.0393,-0.0628,0.0,0.0,0.0,0.0,0.0,0.0,0.0,0.0,0.0,0.0,0.0,0.0,0.0,0.0,0.0,0.0,0.0,0.0,0.0,0.0,0.0,0.0,0.0,0.0,0.0,0.3508,0.3871,0.0,0.0,0.0,0.0,0.0,0.0,0.0,0.0,0.0,0.0,0.0,0.0,-0.1253,-0.2237,-0.3132,-0.4119,-0.421,-0.483,-0.6425,-0.6688,-0.7482,-0.9161,-0.9428,-0.9689,0.0,0.0,0.0,0.0,0.0,0.0,0.0,0.0,0.0,0.0,0.0,0.0,0.0,0.0,0.0,0.0,0.0,0.0,0.0,0.0,0.0,0.0,0.0,0.0,0.0,0.0,0.0,0.0,0.0,0.0,0.0,0.0,0.8528,0.9331,0.0,0.0,0.0,0.0,0.0,0.0,0.0,0.0,0.0,0.0,0.0,0.0,0.0,0.0,0.3771,0.4462,0.4846,0.4846,0.5631,0.5553,0.4846,0.4142,0.3287,0.2431,0.1492,0.0,-0.0628,-0.0707,0.0,0.0,0.0,0.0,0.0,0.0,0.0,0.0,0.0,0.0,0.0,0.0,0.0,0.0,0.0,0.0,0.0,0.0,0.0,0.0,0.0,0.0,0.2901,0.4302,0.4859,0.4776,0.0,0.3123,0.259,0.2591,0.0,0.0,0.0,0.0,0.0,0.0,0.0,0.0,-0.1166,-0.1165,-0.1703,-0.3496,-0.3676,-0.4208,-0.5447,-0.6334,-0.7129,-0.8009,-0.8899,-0.9345,-0.9432,-0.9519,0.0,0.0,0.0,0.0,0.0,0.0,0.0,0.0,0.0,0.0,0.0,0.0,0.0,0.0,0.0,0.0,0.0,0.0,0.0,0.0,0.0,0.0,0.0,0.0,0.0,0.0,0.0,0.0,0.0,1.0691,1.1057,1.2231,1.2098,1.2171,0.0,0.0,0.0,0.0,0.0,0.0,0.0,0.0,0.0,0.7613,0.6853,0.624,0.5848,0.5783,0.5709,0.5709,0.6103,0.6103,0.5709,0.5395,0.4457,0.321,0.282,0.1411,-0.0628,-0.0628,-0.1334,-0.2511,0.0,0.0,0.0,0.0,0.0,-0.253,-0.2203,0.0,0.0,0.0,0.0,0.0,0.0,0.0,0.0,0.0,0.0,0.0,0.0,0.0,0.0,0.4958,0.5653,0.5964,0.5621,0.4831,0.3757,0.0,0.1655,0.1415,0.1415,0.0,0.0,0.0,0.0,0.0,-0.0807,-0.0807,-0.1345,-0.3051,-0.3232,-0.3676,-0.4652,-0.5628,-0.6602,-0.7573,-0.8552,-0.9174,-0.9262,-0.9345,-0.9432,0.0,0.0,0.0,0.0,0.0,0.0,0.0,0.0,0.0,0.0,0.0,0.0,0.0,0.0,0.0,0.0,0.0,0.0,0.0,0.0,0.0,0.0,0.0,0.0,0.0,0.0,0.0,0.0,1.2677,1.3114,1.4649,1.4378,1.4307,0.0,0.0,0.0,0.0,0.0,0.0,1.084,0.989,0.9301,0.9301,0.8318,0.771,0.7484,0.6872,0.649,0.6338,0.6338,0.6338,0.6261,0.6103,0.5318,0.4066,0.3677,0.2113,-0.0078,-0.0471,-0.1256,-0.2275,-0.2275,-0.222,-0.2095,-0.2255,-0.2362,-0.2314,-0.1817,-0.123,-0.0649,-0.0487,0.0,0.1201,0.072,0.0,0.0,0.0,0.0,0.1935,0.2854,0.0,0.4608,0.561,0.6309,0.6703,0.6557,0.5999,0.4887,0.0,0.1951,0.1704,0.1436,0.0,0.0,0.0,0.0,0.0897,-0.0538,-0.0718,-0.1256,-0.2784,-0.2875,-0.3142,-0.3855,-0.501,-0.6074,-0.6959,-0.8201,-0.8911,-0.9087,-0.9174,-0.9174,0.0,0.0,0.0,0.0,0.0,0.0,0.0,0.0,0.0,0.0,0.0,0.0,0.0,0.0,0.0,0.0,0.0,0.0,0.0,0.0,0.0,0.0,0.0,0.0,0.0,0.0,0.0,0.0,0.0,0.0,1.5983,1.5843,0.0,0.0,0.0,0.0,1.5296,1.4585,1.3875,1.3382,1.1822,1.1007,1.1007,0.9442,0.8246,0.7484,0.7484,0.7026,0.6338,0.6338,0.6338,0.6261,0.5473,0.5004,0.4849,0.329,0.2193,0.1407,-0.0,-0.102,-0.1646,-0.1646,-0.1256,-0.0787,-0.1414,-0.165,-0.1652,-0.1652,-0.1196,-0.0487,0.0163,0.0743,0.126,0.126,0.126,0.0,0.0,0.2016,0.2937,0.369,0.4691,0.5607,0.6446,0.6726,0.6659,0.5795,0.5629,0.5354,0.0,0.3398,0.251,0.1524,0.0,0.1436,0.1436,0.1436,0.0897,-0.0538,-0.0718,-0.1256,-0.2784,-0.2875,-0.2875,-0.2963,-0.4654,-0.5719,-0.5808,-0.7584,-0.8656,-0.8656,-0.8828,-0.8911,-0.8911,-0.9174,0.0,0.0,0.0,0.0,0.0,0.0,0.0,0.0,0.0,0.0,0.0,0.0,0.0,0.0,0.0,0.0,0.0,0.0,0.0,0.0,0.0,0.0,0.0,0.0,0.0,0.0,0.0,0.0,1.6862,1.6585,0.0,0.0,1.7354,1.6932,1.6724,1.6,1.5359,1.4736,1.3715,1.2778,1.1916,1.0789,0.9895,0.9084,0.8546,0.7863,0.7103,0.7103,0.6795,0.6261,0.5944,0.5553,0.4927,0.3832,0.2659,0.1485,0.0392,-0.0393,-0.0942,-0.0942,-0.0871,-0.0722,-0.0962,-0.1052,-0.1066,-0.1066,-0.0653,0.0,0.0732,0.1146,0.1322,0.1258,0.1361,0.1375,0.1375,0.2081,0.3065,0.3934,0.4891,0.5852,0.6724,0.7027,0.6977,0.6621,0.6571,0.634,0.5359,0.3937,0.2598,0.1614,0.1436,0.1436,0.1436,0.1436,0.0897,-0.0538,-0.0269,-0.0718,-0.2694,-0.2513,-0.2424,-0.2873,-0.4032,-0.5097,-0.563,-0.6874,-0.794,-0.8568,-0.8656,-0.874,-0.874,-0.8828,-0.9515,0.0,0.0,0.0,0.0,0.0,0.0,0.0,0.0,0.0,0.0,0.0,0.0,0.0,0.0,0.0,0.0,0.0,0.0,0.0,0.0,0.0,0.0,0.0,0.0,0.0,0.0,1.6691,1.7988,1.7706,1.7765,1.8674,1.8395,1.7988,1.7725,1.7276,1.6706,1.6088,1.5163,1.4227,1.3375,1.2412,1.1385,1.0282,0.975,0.8998,0.7863,0.7638,0.7253,0.6721,0.6416,0.5789,0.4924,0.4144,0.3049,0.1802,0.095,0.0398,0.0,-0.0236,-0.0159,-0.008,-0.0241,-0.0405,-0.0411,-0.0414,0.0,0.0652,0.115,0.1318,0.1324,0.1353,0.1375,0.1392,0.1402,0.2393,0.3489,0.4111,0.527,0.634,0.6962,0.7139,0.7139,0.7139,0.7139,0.6786,0.5897,0.4472,0.3044,0.2061,0.1614,0.1436,0.1436,0.1436,0.0987,-0.0179,0.009,-0.0359,-0.2334,-0.2064,-0.2064,-0.2873,-0.4032,-0.5008,-0.563,-0.6874,-0.794,-0.8568,-0.8568,-0.8568,-0.8568,-0.8568,-0.951,-1.1386,0.0,0.0,0.0,0.0,0.0,0.0,0.0,0.0,0.0,0.0,0.0,0.0,0.0,0.0,0.0,0.0,0.0,0.0,0.0,0.0,0.0,0.0,0.0,1.7304,1.7107,1.7588,1.9407,1.9274,1.9198,1.9539,1.9605,1.9208,1.8405,1.8337,1.8066,1.7451,1.6158,1.5376,1.5392,1.4114,1.2732,1.1111,1.1105,1.0363,0.8722,0.7957,0.7573,0.75,0.6736,0.5879,0.4935,0.4153,0.3295,0.2442,0.1614,0.1304,0.122,0.0556,0.0709,0.126,0.0551,0.0315,0.0316,0.0404,0.0815,0.1309,0.1339,0.1265,0.1354,0.1383,0.1392,0.1399,0.1428,0.2868,0.4297,0.4387,0.5725,0.7153,0.7153,0.7153,0.7153,0.7153,0.7153,0.6887,0.5908,0.5013,0.4028,0.3047,0.2063,0.1437,0.1437,0.1438,0.0,0.0449,0.0449,-0.018,-0.1618,-0.1797,-0.2066,-0.2876,-0.4567,-0.563,-0.563,-0.7408,-0.8568,-0.8568,-0.8568,-0.8568,-0.8568,-0.8656,-0.9165,-1.0269,0.0,0.0,0.0,0.0,0.0,0.0,0.0,0.0,0.0,0.0,0.0,0.0,0.0,0.0,0.0,0.0,0.0,0.0,0.0,0.0,0.0,0.0,1.7148,1.7765,1.7774,1.8104,1.9243,1.911,1.9044,1.9539,1.9407,1.9142,1.8875,1.8607,1.8202,1.7647,1.6498,1.5413,1.4518,1.3582,1.2636,1.1691,1.1691,1.1134,1.0184,0.9946,0.9148,0.7951,0.7712,0.6728,0.5175,0.4276,0.3458,0.2474,0.1664,0.1335,0.1251,0.1077,0.1158,0.124,0.1075,0.0992,0.0993,0.1083,0.1168,0.134,0.1369,0.1378,0.1384,0.1414,0.1438,0.1639,0.2377,0.3513,0.4671,0.5511,0.6537,0.7475,0.7475,0.7475,0.7475,0.7475,0.7475,0.7382,0.7102,0.6348,0.509,0.3241,0.2632,0.2292,0.156,0.0,0.0,0.0469,0.0844,0.0469,-0.1593,-0.1295,-0.1559,-0.2843,-0.3437,-0.3942,0.0,-0.5808,-0.6786,-0.7496,-0.8208,-0.8568,-0.8568,-0.9419,-1.0014,0.0,0.0,0.0,0.0,0.0,0.0,0.0,0.0,0.0,0.0,0.0,0.0,0.0,0.0,0.0,0.0,0.0,0.0,0.0,0.0,0.0,0.0,1.7696,1.7696,1.8767,1.8566,1.87,1.9704,1.9562,1.9507,1.9987,1.9605,1.9348,1.9334,1.8879,1.8478,1.8366,1.7376,1.6538,1.579,1.4668,1.3691,1.2936,1.2625,1.1822,1.0611,1.0282,0.9394,0.8012,0.7687,0.6771,0.0,0.4441,0.3522,0.2604,0.1699,0.1365,0.0,0.0,0.0,0.0,0.0,0.1263,0.1263,0.1263,0.1263,0.1267,0.1367,0.138,0.1395,0.1426,0.1728,0.2314,0.2889,0.4143,0.5412,0.6072,0.6929,0.76,0.76,0.76,0.76,0.76,0.76,0.76,0.76,0.0,0.0,0.3965,0.3248,0.262,0.1687,0.1515,0.1335,0.0,0.124,0.0858,-0.0667,-0.0754,-0.1217,-0.2433,-0.3124,0.0,0.0,0.0,-0.6163,-0.7051,-0.7676,0.0,0.0,0.0,-0.9593,0.0,0.0,0.0,0.0,-0.8727,-0.8021,0.0,0.0,0.0,0.0,0.0,0.0,0.0,0.0,0.0,0.0,0.0,0.0,0.0,0.0,0.0,0.0,1.8104,1.8499,2.0031,1.9473,1.9362,2.0442,2.041,2.0379,2.0649,2.0052,1.9733,1.9779,1.9053,1.8734,1.9093,0.0,0.0,0.0,0.0,1.4955,1.4295,1.3426,1.2302,1.0762,1.0024,0.9128,0.8065,0.7409,0.6489,0.5482,0.4559,0.3718,0.2879,0.1988,0.1482,0.1393,0.1367,0.1273,0.1273,0.1273,0.1273,0.0,0.0,0.0,0.0,0.1363,0.1382,0.141,0.1438,0.2197,0.317,0.3226,0.4674,0.6211,0.6398,0.6975,0.7648,0.7648,0.7648,0.7648,0.7648,0.7648,0.7648,0.7648,0.7553,0.6884,0.4973,0.3915,0.2863,0.1722,0.1534,0.0,0.1536,0.1536,0.1248,0.048,0.0,0.0,-0.1719,-0.3184,-0.4164,-0.4256,-0.5091,-0.6019,-0.6897,-0.7002,-0.7457,-0.8448,-0.8428,-0.8504,-0.8597,-0.8488,-0.8388,-0.8388,-0.7757,-0.7312,0.0,0.0,0.0,0.0,0.0,0.0,0.0,0.0,0.0,0.0,0.0,0.0,0.0,0.0,0.0,1.9127,1.9365,1.9738,2.0828,2.0379,2.0076,2.0551,2.0917,2.1163,2.1229,2.0625,2.0263,2.0286,1.9305,1.8625,1.8452,1.6791,0.0,1.589,1.4153,1.3238,1.3387,1.2968,1.2632,1.2289,0.0,0.0,0.9547,0.9375,0.7989,0.5648,0.5473,0.4856,0.3974,0.3021,0.2138,0.1426,0.1421,0.1418,0.1418,0.1418,0.1418,0.1418,0.1418,0.1435,0.1455,0.1455,0.1476,0.1501,0.1507,0.2291,0.0,0.4272,0.5405,0.6564,0.7454,0.7756,0.7953,0.7953,0.7953,0.7953,0.7953,0.7953,0.7953,0.7953,0.726,0.6267,0.4971,0.452,0.37,0.1855,0.1583,0.1599,0.1599,0.1599,0.1299,0.05,0.0296,-0.0293,-0.1754,-0.2106,-0.2648,-0.3314,-0.4238,-0.5125,-0.604,-0.6132,-0.6653,-0.7681,-0.7556,-0.7858,-0.8771,-0.7827,-0.7408,-0.7408,-0.7228,-0.6786,0.0,0.0,0.0,0.0,0.0,0.0,0.0,0.0,0.0,0.0,0.0,1.5014,0.0,0.0,1.8154,1.8559,1.9243,1.9921,2.0632,2.0808,2.074,2.0688,2.095,2.1029,2.0812,2.0547,2.035,2.0149,1.9228,1.8731,1.884,1.7363,1.65,1.6589,1.4646,1.3748,1.3893,1.3215,1.2443,1.1483,1.1397,1.0356,0.8532,0.8532,0.7742,0.634,0.5897,0.545,0.4914,0.4024,0.3044,0.2152,0.2152,0.1883,0.1436,0.1436,0.1445,0.1458,0.1458,0.1478,0.1503,0.1503,0.1524,0.1645,0.2223,0.3131,0.4265,0.5255,0.6385,0.7338,0.7839,0.8038,0.8038,0.8038,0.8038,0.8038,0.8038,0.8038,0.7839,0.7338,0.6736,0.5932,0.4325,0.3896,0.3378,0.1793,0.1607,0.1617,0.1617,0.1617,0.1415,0.101,0.0701,-0.0,-0.1293,-0.2052,-0.2599,-0.305,-0.3523,-0.4163,-0.5144,-0.5193,-0.5693,-0.6635,-0.6569,-0.6814,-0.7372,-0.6749,-0.6533,-0.6441,-0.5985,-0.5468,0.0,0.0,0.0,0.0,0.0,0.0,0.0,0.0,1.126,1.3679,1.4477,1.5088,1.6193,1.7292,1.8066,1.7988,1.8993,1.9993,2.056,2.1184,2.1373,2.0805,2.115,2.1165,2.0646,2.0658,2.0439,1.999,1.9277,1.8884,1.8966,1.8014,1.7367,1.7204,1.5387,1.4398,1.4482,1.347,1.2266,1.0788,1.0356,0.9314,0.7665,0.7489,0.7316,0.7051,0.634,0.5897,0.563,0.4914,0.4024,0.3135,0.3238,0.2704,0.1984,0.1534,0.1463,0.1489,0.1489,0.1509,0.1535,0.1726,0.1845,0.2072,0.315,0.4274,0.5327,0.6134,0.7135,0.8038,0.8038,0.8038,0.8038,0.8038,0.8038,0.8038,0.8038,0.8038,0.7739,0.6836,0.6334,0.5532,0.3825,0.3123,0.2622,0.1717,0.1617,0.1617,0.1617,0.1617,0.1617,0.1617,0.101,0.0202,-0.0706,-0.2089,-0.2935,-0.3071,-0.3078,-0.3462,-0.4208,-0.4223,-0.471,-0.5663,-0.5641,-0.5726,-0.5913,-0.5703,-0.5598,-0.5596,-0.4656,-0.4291,0.086,0.3557,0.6096,0.6337,0.7766,0.9282,0.0,0.0,1.1198,1.3775,1.4464,1.5096,1.6544,1.7596,1.8408,1.8771,1.9913,2.0963,2.164,2.1976,2.1797,2.1084,2.2221,2.2835,2.2088,2.1734,2.1318,2.0459,1.97,1.885,1.7934,1.7025,1.6214,1.5416,1.3984,1.3392,1.3561,1.3045,1.2619,1.2443,1.158,1.0621,0.9575,0.8711,0.7929,0.7051,0.6962,0.6428,0.5719,0.563,0.5003,0.4119,0.4288,0.4227,0.3952,0.2119,0.1495,0.1521,0.1521,0.1541,0.1761,0.2735,0.2967,0.3213,0.431,0.542,0.6234,0.6337,0.7135,0.8038,0.8038,0.8038,0.8038,0.8038,0.8038,0.8038,0.8038,0.8038,0.7939,0.7839,0.6329,0.4924,0.4624,0.3022,0.1717,0.1617,0.1617,0.1617,0.1617,0.1617,0.1617,0.1617,0.1516,0.0808,-0.0706,-0.161,-0.2394,-0.3036,-0.318,-0.3185,-0.3229,-0.3281,-0.3807,-0.4904,-0.4822,-0.5165,-0.6136,-0.5172,-0.4656,-0.4656,-0.3711,-0.3668,0.3799,0.5439,0.0,0.0,0.9058,1.0017,1.0617,1.1118,1.1872,1.3443,1.4283,1.4949,1.576,1.7684,1.8894,0.0,1.982,2.1133,2.0747,2.1197,2.1471,2.1445,2.2083,2.1924,2.0625,2.0804,2.0692,1.9844,1.946,1.9063,1.8656,1.7342,1.637,1.6057,1.4482,1.3743,1.3828,1.3483,1.3039,1.2425,1.1923,1.0971,0.9492,0.9061,0.8368,0.7323,0.7143,0.6923,0.6731,0.6731,0.6136,0.5373,0.5513,0.5193,0.4573,0.3678,0.2951,0.2518,0.2518,0.255,0.2591,0.3086,0.3601,0.4325,0.5429,0.6032,0.6537,0.7138,0.7637,0.8038,0.8038,0.8038,0.8038,0.8038,0.8038,0.8038,0.8038,0.8038,0.7839,0.7238,0.6331,0.5329,0.4124,0.3123,0.2321,0.1718,0.1617,0.1617,0.1617,0.1617,0.1617,0.1617,0.1212,0.0404,-0.0706,-0.1513,-0.2312,-0.3094,-0.3217,-0.3219,-0.3194,-0.3217,-0.343,-0.3833,-0.3802,-0.3985,-0.448,-0.3953,-0.3741,-0.3741,-0.3351,-0.3316,0.5663,0.0,0.0,0.9161,1.018,1.0825,1.1159,1.1692,1.2405,1.3365,1.4246,1.5046,1.5682,1.7703,0.0,1.7877,1.9583,2.0844,2.0282,2.0815,2.1244,2.142,2.1451,2.0847,1.946,2.0001,2.0148,1.9381,1.9054,1.8816,1.8567,1.7188,1.6206,1.5966,1.4657,1.3997,1.3997,1.3737,1.3124,1.2248,1.1837,1.0712,0.9148,0.8798,0.822,0.7481,0.7296,0.7292,0.7434,0.7434,0.7121,0.6552,0.6587,0.6269,0.5659,0.5615,0.4772,0.3649,0.3649,0.3682,0.3725,0.4026,0.4626,0.5429,0.6534,0.6836,0.7036,0.7739,0.8038,0.8038,0.8038,0.8038,0.8038,0.8038,0.8038,0.8038,0.8038,0.8038,0.7739,0.7039,0.6637,0.5934,0.4327,0.3624,0.2928,0.2134,0.1832,0.1629,0.1629,0.1636,0.1641,0.1641,0.1123,0.0407,-0.0406,-0.1011,-0.1816,-0.2826,-0.2826,-0.2927,-0.323,-0.323,-0.323,-0.323,-0.323,-0.323,-0.323,-0.323,-0.323,-0.323,-0.323,-0.3006,0.0,0.0,0.9614,0.9872,1.0988,1.2062,1.2068,1.2005,1.2452,1.3962,1.4595,1.5421,1.7108,1.7661,1.8147,1.9029,1.959,2.0163,2.0862,2.1466,2.1441,2.0615,2.0537,2.0235,0.0,2.0001,2.0148,1.9381,1.8487,1.7674,1.6854,1.5966,1.5068,1.4166,1.3906,1.3737,1.3737,1.3476,1.296,1.2015,1.1063,1.0024,0.889,0.7665,0.7221,0.7363,0.7363,0.7451,0.7594,0.7594,0.7597,0.7614,0.7654,0.7707,0.7731,0.7872,0.652,0.472,0.472,0.4722,0.4926,0.5932,0.6337,0.6537,0.764,0.7939,0.7942,0.8038,0.8038,0.8038,0.8038,0.8038,0.8038,0.8038,0.8038,0.8038,0.8038,0.8038,0.8038,0.7942,0.7138,0.6337,0.6337,0.4528,0.3244,0.3199,0.2384,0.1661,0.1661,0.1684,0.1701,0.1701,0.1677,0.1348,0.0414,0.0306,-0.0303,-0.1917,-0.2017,-0.2422,-0.313,-0.323,-0.323,-0.323,-0.323,-0.323,-0.323,-0.323,-0.323,-0.323,-0.323,-0.2825,0.8168,0.0,1.0643,1.1219,1.1526,1.1702,1.2003,1.1926,1.2203,1.3659,1.4712,1.5699,1.708,1.8605,1.9496,1.9275,1.9841,2.0168,1.9937,2.0062,1.9991,1.9766,1.9687,0.0,0.0,0.0,0.0,1.9301,1.9054,1.8487,1.7594,1.678,1.5884,1.4985,1.4328,1.3997,1.3997,1.3913,1.3737,1.3398,1.1919,1.0931,1.0401,0.8659,0.7838,0.7705,0.7612,0.7604,0.774,0.774,0.7801,0.7896,0.7943,0.7963,0.797,0.8021,0.7534,0.683,0.6132,0.5832,0.5932,0.6234,0.6836,0.7537,0.7939,0.8038,0.8038,0.8038,0.8038,0.8038,0.8038,0.8038,0.8038,0.8038,0.8038,0.8038,0.8038,0.8038,0.8038,0.8038,0.7739,0.7266,0.674,0.6037,0.5068,0.3629,0.2445,0.169,0.169,0.1698,0.1704,0.1704,0.1696,0.1373,0.0528,0.0415,-0.0103,-0.1129,-0.1218,-0.1613,-0.2422,-0.2422,-0.2623,-0.323,-0.323,-0.323,-0.323,-0.323,-0.323,-0.323,-0.2623,-0.2219,0.9183,1.0034,1.092,1.1558,1.1614,1.1558,1.1929,1.1929,1.233,1.4026,1.5134,1.6288,1.7907,1.9439,2.0448,2.0297,2.0688,2.0847,2.0287,2.0217,2.0136,1.9732,1.9732,0.0,0.0,0.0,0.0,1.8913,1.8567,1.7997,1.7107,1.6206,1.5477,1.4992,1.4419,1.4088,1.4088,1.4195,1.4117,1.387,1.1987,1.1071,1.0805,0.9116,0.8276,0.8146,0.8055,0.7952,0.799,0.799,0.8048,0.8038,0.8038,0.8038,0.8038,0.8038,0.8038,0.7939,0.7238,0.6936,0.6936,0.6936,0.7437,0.8038,0.8038,0.8038,0.8038,0.8038,0.8038,0.8038,0.8038,0.8038,0.8038,0.8038,0.8038,0.8038,0.8038,0.8038,0.8055,0.8109,0.8123,0.7965,0.748,0.7021,0.6047,0.3802,0.2826,0.2277,0.1845,0.1737,0.1737,0.1737,0.1727,0.1505,0.0967,0.0952,0.0523,-0.0314,-0.0309,-0.0713,-0.1527,-0.162,-0.1815,-0.232,-0.2623,-0.2623,-0.232,-0.2623,-0.2623,-0.232,-0.1815,-0.1412,0.8707,0.97,1.0556,1.1016,1.145,1.1806,1.1955,1.2035,1.2798,1.5073,1.6038,1.7238,0.0,0.0,2.0801,2.1709,2.1855,2.1846,2.1846,2.1846,2.1515,0.0,0.0,0.0,0.0,0.0,0.0,1.8108,0.0,1.6425,1.5521,1.4706,1.4213,1.4135,1.4135,1.4135,1.4135,1.4316,1.4141,1.3495,1.1298,1.0292,1.0297,0.9011,0.8547,0.8605,0.8605,0.8496,0.8432,0.8432,0.8237,0.8041,0.8038,0.8038,0.8038,0.8038,0.8038,0.8038,0.8038,0.8038,0.8038,0.8038,0.8038,0.8038,0.8038,0.8038,0.8038,0.8038,0.8038,0.8038,0.8038,0.8038,0.8038,0.8038,0.8038,0.8041,0.8052,0.8052,0.8096,0.8252,0.8289,0.8336,0.8469,0.7651,0.6216,0.4038,0.3653,0.3135,0.1907,0.1795,0.1795,0.1795,0.1769,0.1752,0.1752,0.1724,0.1386,0.064,0.0524,0.0104,-0.0727,-0.0714,-0.0707,-0.0809,-0.1516,-0.1516,-0.0808,-0.1615,-0.1514,-0.0806,-0.0806,-0.0303,1.0108,1.0746,1.155,1.1564,1.1702,1.1967,1.2272,1.3036,1.4142,1.5795,1.7177,1.8599,0.0,0.0,0.0,2.1295,2.1043,0.0,2.0848,2.0848,0.0,0.0,0.0,2.0521,2.0521,1.9835,0.0,0.0,1.8244,1.8091,1.7141,1.6198,1.5427,1.4831,1.4743,1.4743,1.4743,1.4078,1.3237,1.2307,1.1175,1.0499,1.0315,0.9425,0.8928,0.8765,0.8765,0.8689,0.8726,0.8531,0.8333,0.8233,0.8038,0.8038,0.8038,0.8038,0.8038,0.8038,0.8038,0.8038,0.8038,0.8038,0.8038,0.8038,0.8038,0.8038,0.8038,0.8038,0.8038,0.8038,0.8038,0.8038,0.8038,0.8038,0.8038,0.8072,0.8187,0.8211,0.8255,0.8397,0.852,0.8611,0.8645,0.7792,0.6885,0.622,0.4682,0.3135,0.1907,0.1795,0.1795,0.1795,0.1788,0.1783,0.1783,0.1755,0.1738,0.152,0.1389,0.1058,0.0212,0.0211,-0.0105,-0.0735,-0.0945,-0.0939,-0.0823,-0.1029,-0.1022,-0.0806,-0.0202,0.0202,1.0567,1.1134,1.1889,1.1948,1.2126,1.242,1.2733,1.362,1.4795,1.6221,1.7619,0.0,0.0,0.0,0.0,0.0,0.0,0.0,2.1627,2.1627,2.1465,0.0,2.1053,0.0,2.1053,2.0533,1.9808,0.0,1.8272,1.7494,1.6536,1.6013,1.5486,1.5053,1.4963,1.5023,1.515,1.4591,1.3817,1.2913,1.1993,1.1284,1.0614,0.9772,0.9331,0.9126,0.0,0.9126,0.8928,0.8832,0.8634,0.8528,0.8233,0.8137,0.8137,0.8038,0.8038,0.8038,0.8038,0.8038,0.8038,0.8038,0.8038,0.8038,0.8038,0.8038,0.8038,0.8038,0.8038,0.8038,0.8038,0.8038,0.8058,0.8126,0.814,0.818,0.833,0.8364,0.8408,0.8554,0.8706,0.8811,0.8811,0.8326,0.7709,0.7152,0.5588,0.3914,0.28,0.213,0.1795,0.1795,0.1795,0.1795,0.1795,0.1779,0.177,0.177,0.1741,0.1508,0.1077,0.1069,0.0852,0.0319,0.0,-0.0,0.0315,-0.0105,-0.0,0.031,0.0724,0.0931,1.0601,1.1247,1.1983,1.2215,1.2576,1.3028,1.3187,1.4073,1.5189,1.6571,0.0,0.0,2.058,0.0,2.1479,2.2601,0.0,2.2921,2.2921,2.2921,2.258,2.182,2.1741,2.1642,2.1553,2.1374,2.0907,1.9977,1.7596,1.5956,1.5348,1.5167,1.5077,1.5077,1.5077,1.5106,1.5266,1.5266,1.4822,1.41,1.3022,1.2047,1.117,1.0113,0.9628,0.9628,0.0,0.0,0.9236,0.9236,0.9031,0.8825,0.8531,0.8432,0.8333,0.8137,0.8038,0.8038,0.8038,0.8038,0.8038,0.8038,0.8038,0.8038,0.8038,0.8038,0.8038,0.8038,0.8038,0.8045,0.8065,0.8069,0.8109,0.8262,0.8299,0.8336,0.8482,0.8526,0.8581,0.8716,0.8849,0.894,0.894,0.894,0.8491,0.7487,0.6366,0.5139,0.4026,0.2689,0.1795,0.1795,0.1795,0.1795,0.1795,0.1795,0.1795,0.1795,0.177,0.1755,0.1755,0.1731,0.1716,0.1716,0.1072,0.0964,0.171,0.0962,0.1067,0.1704,0.1704,0.1704,1.1432,1.1769,1.2263,1.2501,1.2872,1.3323,1.3486,1.4954,0.0,0.0,0.0,1.9543,2.0008,2.0507,0.0,2.1364,0.0,0.0,0.0,0.0,2.19,0.0,0.0,0.0,0.0,0.0,0.0,0.0,0.0,0.0,1.6886,1.614,1.5678,1.5678,1.5678,1.5321,1.4512,1.4518,1.3957,1.2926,1.195,1.1365,1.117,1.0113,0.9628,0.9628,0.0,0.0,0.9529,0.9335,0.9133,0.9034,0.863,0.8432,0.8333,0.8137,0.8038,0.8038,0.8038,0.8038,0.8038,0.8038,0.8038,0.8038,0.8038,0.8038,0.8038,0.8038,0.8038,0.8069,0.8197,0.8231,0.8265,0.8411,0.8445,0.8486,0.8638,0.8771,0.8866,0.8896,0.892,0.894,0.894,0.894,0.8826,0.8605,0.7598,0.6369,0.525,0.3135,0.1795,0.1795,0.1795,0.1795,0.1795,0.1795,0.1795,0.1795,0.179,0.1787,0.1787,0.1782,0.1779,0.1779,0.1668,0.1656,0.1742,0.1633,0.1621,0.1704,0.1704,0.1704,1.1769,1.2172,1.27,1.2787,1.3244,1.3708,1.3874,0.0,0.0,0.0,0.0,1.8839,1.9634,0.0,0.0,0.0,0.0,0.0,0.0,0.0,0.0,0.0,0.0,0.0,0.0,0.0,0.0,0.0,0.0,0.0,1.6487,1.6015,1.5832,1.5832,1.5832,1.554,1.5064,1.5064,1.4286,1.2727,1.2242,1.137,1.0306,0.9821,0.9628,0.9628,0.9628,0.0,0.9628,0.943,0.9335,0.9133,0.873,0.8531,0.8333,0.8137,0.8038,0.8038,0.8038,0.8038,0.8038,0.8038,0.8038,0.8038,0.8038,0.8096,0.816,0.816,0.8214,0.8286,0.8364,0.8381,0.8418,0.8567,0.8662,0.874,0.8815,0.8886,0.894,0.894,0.894,0.894,0.894,0.838,0.7934,0.7934,0.648,0.5031,0.4583,0.2912,0.1795,0.1795,0.1795,0.1795,0.1795,0.1795,0.1795,0.1795,0.1795,0.1795,0.1795,0.1795,0.1795,0.1795,0.1795,0.1788,0.1774,0.1774,0.1765,0.1751,0.1751,0.1751,1.2091,1.2613,1.3156,1.3156,1.3658,1.4088,1.4088,1.4741,0.0,0.0,0.0,1.7946,0.0,0.0,0.0,0.0,0.0,0.0,0.0,0.0,0.0,0.0,0.0,0.0,0.0,0.0,0.0,0.0,0.0,0.0,0.0,1.5832,1.5832,1.5832,1.5832,1.573,1.5445,1.5445,1.4567,1.2727,1.2436,1.1565,0.9916,0.9723,0.9628,0.9628,0.0,0.0,0.0,0.9529,0.943,0.9133,0.8829,0.8627,0.8333,0.8137,0.8038,0.8045,0.8075,0.8089,0.8096,0.8123,0.8113,0.8089,0.8089,0.8194,0.8316,0.8316,0.8394,0.8489,0.8523,0.853,0.857,0.8723,0.8852,0.894,0.894,0.894,0.894,0.894,0.894,0.8826,0.8605,0.7709,0.7041,0.6816,0.5142,0.3914,0.358,0.28,0.213,0.1795,0.1795,0.1795,0.1795,0.1795,0.1795,0.1795,0.1795,0.1795,0.1795,0.1795,0.1795,0.1795,0.1795,0.1795,0.1795,0.1795,0.1795,0.1795,0.1795,0.1795,1.2618,1.3144,1.3613,1.3613,1.3893,1.4088,1.4088,0.0,0.0,0.0,1.6714,1.7456,0.0,0.0,0.0,0.0,0.0,0.0,0.0,0.0,0.0,0.0,0.0,0.0,0.0,0.0,0.0,0.0,0.0,0.0,0.0,1.5832,1.5832,1.5832,1.5832,1.535,1.449,1.449,1.3806,1.2727,1.1755,1.1268,1.0979,1.0015,0.9628,0.9628,0.0,0.0,0.0,0.9335,0.9232,0.9137,0.8634,0.8432,0.8333,0.8137,0.8038,0.8058,0.8201,0.8248,0.8272,0.8397,0.8353,0.8248,0.8248,0.835,0.8462,0.8462,0.8472,0.8513,0.8655,0.8689,0.8726,0.8879,0.8927,0.894,0.894,0.894,0.894,0.894,0.894,0.8605,0.7487,0.7152,0.6705,0.5697,0.5361,0.4804,0.3691,0.3469,0.3024,0.1907,0.1795,0.1795,0.1795,0.1795,0.1795,0.1795,0.1795,0.1795,0.1795,0.1795,0.1795,0.1795,0.1795,0.1795,0.1795,0.1795,0.1795,0.1795,0.1795,0.1795,1.2981,1.3309,1.3737,1.3737,1.3913,1.4088,1.4088,0.0,1.4559,1.5974,1.6214,1.678,1.8523,0.0,0.0,0.0,0.0,0.0,0.0,0.0,0.0,0.0,0.0,0.0,0.0,0.0,0.0,0.0,0.0,0.0,0.0,1.5832,1.5832,1.5832,1.5832,1.5635,1.5255,1.4586,1.3806,1.2727,1.1658,1.0886,1.0207,0.9821,0.9628,0.9628,0.0,0.0,0.0,0.9331,0.9133,0.8928,0.8531,0.8333,0.8148,0.8143,0.8177,0.8201,0.8347,0.8397,0.8408,0.8465,0.8506,0.852,0.8425,0.8503,0.8618,0.8618,0.8686,0.8771,0.8832,0.8849,0.8862,0.8923,0.894,0.894,0.894,0.894,0.894,0.894,0.894,0.8491,0.7265,0.648,0.5697,0.447,0.3692,0.3023,0.2576,0.2465,0.2353,0.1907,0.1795,0.1795,0.1795,0.1795,0.1795,0.1795,0.1795,0.1795,0.1795,0.1795,0.1795,0.1795,0.1795,0.1795,0.1795,0.1795,0.1795,0.1795,0.1795,0.1795,1.3222,1.3483,1.3828,1.3737,1.3913,1.4088,0.0,0.0,1.4062,1.5636,1.5794,1.6206,1.8282,1.9321,0.0,0.0,0.0,0.0,0.0,0.0,0.0,0.0,0.0,0.0,0.0,0.0,0.0,0.0,0.0,0.0,0.0,1.5832,1.5832,1.5832,1.5832,1.5642,1.535,1.4682,1.3607,1.2242,1.156,1.0596,0.9628,0.9628,0.9628,0.0,0.0,0.0,0.0,0.9133,0.8931,0.873,0.8485,0.8206,0.8126,0.8279,0.8333,0.8353,0.8499,0.855,0.8557,0.8604,0.8689,0.8757,0.8652,0.8693,0.8777,0.8777,0.8855,0.894,0.894,0.894,0.894,0.894,0.894,0.894,0.894,0.894,0.894,0.894,0.894,0.838,0.6816,0.5919,0.4916,0.3357,0.2353,0.1795,0.1795,0.1795,0.1795,0.1795,0.1795,0.1795,0.1795,0.1795,0.1795,0.1795,0.1795,0.1795,0.1795,0.1795,0.1795,0.1795,0.1795,0.1795,0.1795,0.1795,0.1795,0.1795,0.1795,0.1795,1.3398,1.3737,1.4004,1.3737,1.3913,1.3997,0.0,1.3398,1.3808,1.5372,1.5545,1.6049,1.8031,1.923,1.9929,2.0192,0.0,0.0,0.0,0.0,0.0,0.0,0.0,0.0,0.0,0.0,0.0,0.0,0.0,0.0,0.0,0.0,1.5832,1.5832,1.5832,1.535,1.4298,1.4298,1.3221,1.1175,1.117,1.0596,0.9628,0.9628,0.0,0.0,0.0,0.0,0.0,0.873,0.8528,0.8741,0.8411,0.8269,0.8286,0.8428,0.8479,0.8503,0.8655,0.871,0.8733,0.8882,0.8933,0.8937,0.8933,0.8933,0.8937,0.8937,0.8937,0.894,0.894,0.894,0.894,0.894,0.894,0.894,0.894,0.894,0.894,0.894,0.894,0.8152,0.5806,0.5361,0.4582,0.213,0.1795,0.1795,0.1795,0.1795,0.1795,0.1795,0.1795,0.1795,0.1795,0.1795,0.1795,0.1795,0.1795,0.1795,0.1795,0.1795,0.1795,0.1795,0.1795,0.1795,0.1795,0.1795,0.1795,0.1795,0.1795,0.1795,1.3278,1.3398,1.3568,1.3483,1.3568,1.3568,1.3398,1.373,1.4391,1.5455,1.6034,1.6788,1.8282,1.9321,2.0005,2.0352,2.1222,0.0,0.0,0.0,0.0,0.0,0.0,0.0,0.0,0.0,0.0,0.0,0.0,0.0,0.0,0.0,1.5832,1.5832,1.5832,1.5635,1.535,1.3896,1.2926,1.2242,1.0788,0.9916,0.9628,0.9628,0.0,0.0,0.0,0.0,0.0,0.9097,0.8965,0.9072,0.8605,0.8414,0.8431,0.8581,0.8638,0.8659,0.8815,0.8866,0.8872,0.8923,0.894,0.894,0.894,0.894,0.894,0.894,0.894,0.894,0.894,0.894,0.894,0.894,0.894,0.894,0.894,0.894,0.894,0.894,0.894,0.838,0.6813,0.5919,0.4916,0.3246,0.2353,0.1795,0.1795,0.1795,0.1795,0.1795,0.1795,0.1795,0.1795,0.1795,0.1795,0.1795,0.1795,0.1795,0.1795,0.1795,0.1795,0.1795,0.1795,0.1795,0.1795,0.1795,0.1795,0.1795,0.1795,0.1795,0.0,1.3303,1.3398,1.3307,1.3313,0.0,0.0,1.3555,1.4223,1.5379,1.5959,1.6746,1.8481,1.9428,2.0103,2.0753,2.1569,0.0,0.0,0.0,0.0,0.0,0.0,0.0,0.0,0.0,0.0,0.0,0.0,0.0,0.0,0.0,1.5832,1.5832,1.5832,1.5635,1.5255,1.3992,1.2926,1.2145,1.0788,1.0015,0.9628,0.0,0.0,0.0,0.0,0.0,0.0,0.9271,0.9024,0.9126,0.8762,0.8567,0.8587,0.874,0.8798,0.8811,0.8906,0.894,0.894,0.894,0.894,0.894,0.894,0.894,0.894,0.894,0.894,0.894,0.894,0.894,0.894,0.894,0.894,0.894,0.894,0.894,0.894,0.894,0.894,0.8491,0.7265,0.648,0.5475,0.3804,0.2911,0.2353,0.1907,0.1795,0.1795,0.1795,0.1795,0.1795,0.1795,0.1795,0.1795,0.1795,0.1795,0.1795,0.1795,0.1795,0.1795,0.1795,0.1795,0.1795,0.1795,0.1795,0.1795,0.1795,0.1795,0.1795,0.0,0.0,0.0,0.0,0.0,0.0,0.0,1.296,0.0,1.5061,1.5477,1.6322,1.8628,1.953,2.03,2.123,2.2226,0.0,0.0,0.0,0.0,0.0,0.0,0.0,0.0,0.0,0.0,0.0,0.0,0.0,0.0,0.0,0.0,1.5832,1.5832,1.535,1.4394,1.4298,1.3221,1.1268,1.1184,1.0614,0.9652,0.0,0.0,0.0,0.0,0.0,0.0,0.9126,0.8927,0.8962,0.8779,0.8726,0.8743,0.8886,0.894,0.894,0.894,0.894,0.894,0.894,0.894,0.894,0.894,0.894,0.894,0.894,0.894,0.894,0.894,0.894,0.894,0.894,0.894,0.894,0.894,0.894,0.894,0.894,0.894,0.8491,0.7376,0.7041,0.6258,0.4027,0.358,0.3023,0.1907,0.1795,0.1795,0.1795,0.1795,0.1795,0.1795,0.1795,0.1795,0.1795,0.1795,0.1795,0.1795,0.1795,0.1795,0.1795,0.1795,0.1795,0.1795,0.1795,0.1795,0.1795,0.1795,0.1795,1.3841,0.0,1.315,1.2845,0.0,0.0,0.0,0.0,0.0,0.0,0.0,1.7736,1.9032,1.9835,2.0631,2.1471,0.0,0.0,0.0,0.0,0.0,0.0,0.0,0.0,0.0,0.0,0.0,0.0,0.0,0.0,0.0,0.0,0.0,1.5832,1.5832,1.5737,1.5445,1.3896,1.2829,1.2344,1.0843,1.002,0.9831,0.0,0.0,0.0,0.0,0.0,0.9929,0.9503,0.9366,0.9272,0.8979,0.8882,0.8889,0.8923,0.894,0.894,0.894,0.894,0.894,0.894,0.894,0.894,0.894,0.894,0.894,0.894,0.894,0.894,0.894,0.894,0.894,0.894,0.894,0.894,0.894,0.894,0.894,0.894,0.894,0.8826,0.8491,0.7035,0.5584,0.5027,0.3357,0.213,0.1795,0.1795,0.1795,0.1795,0.1795,0.1795,0.1795,0.1795,0.1795,0.1795,0.1795,0.1795,0.1795,0.1795,0.1795,0.1795,0.1795,0.1795,0.1795,0.1795,0.1795,0.1795,0.1795,0.1795,1.3791,1.3429,1.3091,1.2934,1.2801,1.279,0.0,0.0,0.0,0.0,0.0,0.0,1.9371,0.0,0.0,0.0,0.0,0.0,0.0,0.0,0.0,0.0,0.0,0.0,0.0,0.0,0.0,0.0,0.0,0.0,0.0,0.0,0.0,0.0,1.5832,1.554,1.5159,1.3505,1.2489,1.2107,1.0637,0.9929,1.0018,0.0,0.0,0.0,0.0,0.0,0.9895,0.957,0.9297,0.9158,0.894,0.894,0.894,0.894,0.894,0.894,0.894,0.894,0.894,0.894,0.894,0.894,0.894,0.894,0.894,0.894,0.894,0.894,0.894,0.894,0.894,0.894,0.894,0.894,0.894,0.894,0.894,0.894,0.894,0.894,0.894,0.7817,0.6811,0.6255,0.5031,0.3805,0.28,0.2577,0.2465,0.1907,0.1795,0.1795,0.1795,0.1795,0.1795,0.1795,0.1795,0.1795,0.1795,0.1795,0.1795,0.1795,0.1795,0.1795,0.1795,0.1795,0.1795,0.1795,0.1795,0.1795,1.3707,1.347,1.334,1.3079,1.2966,1.3124,0.0,0.0,0.0,0.0,0.0,0.0,0.0,0.0,0.0,0.0,0.0,0.0,0.0,0.0,0.0,0.0,0.0,0.0,0.0,0.0,0.0,0.0,0.0,0.0,0.0,0.0,0.0,0.0,1.5899,1.5434,1.4413,1.3294,1.2413,1.1736,1.0561,1.005,1.0209,1.0391,0.0,0.0,0.0,0.0,0.9816,0.9489,0.9158,0.894,0.894,0.894,0.894,0.894,0.894,0.894,0.894,0.894,0.894,0.894,0.894,0.894,0.894,0.894,0.894,0.894,0.894,0.894,0.894,0.894,0.894,0.894,0.894,0.894,0.894,0.894,0.894,0.894,0.894,0.894,0.894,0.8716,0.8269,0.7263,0.693,0.6146,0.4137,0.3914,0.3357,0.2242,0.213,0.2019,0.1795,0.1795,0.1795,0.1795,0.1795,0.1795,0.1795,0.1795,0.1795,0.1795,0.1795,0.1795,0.1795,0.1795,0.1795,0.1795,0.1795,0.1795,1.393,1.4195,1.4224,1.3053,1.3326,1.3873,0.0,0.0,0.0,0.0,0.0,0.0,0.0,0.0,0.0,0.0,0.0,0.0,0.0,0.0,0.0,0.0,0.0,0.0,0.0,0.0,0.0,0.0,0.0,0.0,0.0,0.0,0.0,0.0,0.0,1.5823,1.495,1.3635,1.2957,1.3083,1.1212,1.0367,1.04,1.0574,1.0651,0.0,0.0,1.0147,0.9816,0.9489,0.9158,0.894,0.894,0.894,0.894,0.894,0.894,0.894,0.894,0.894,0.894,0.894,0.894,0.894,0.894,0.894,0.894,0.894,0.894,0.894,0.894,0.894,0.894,0.894,0.894,0.894,0.894,0.894,0.894,0.894,0.894,0.894,0.894,0.8045,0.7265,0.7154,0.6255,0.5586,0.5139,0.5139,0.4693,0.3469,0.3357,0.2912,0.1907,0.1795,0.1795,0.1795,0.1795,0.1795,0.1795,0.1795,0.1795,0.1795,0.1795,0.1795,0.1795,0.1795,0.1795,0.1795,0.1795,0.1795,1.3767,1.4115,1.4414,1.356,1.3704,0.0,0.0,0.0,0.0,0.0,0.0,0.0,0.0,0.0,0.0,0.0,0.0,0.0,0.0,0.0,0.0,0.0,0.0,0.0,0.0,0.0,0.0,0.0,0.0,0.0,0.0,0.0,0.0,0.0,0.0,1.5218,1.435,1.3111,1.2496,1.2596,1.1128,1.0485,1.0578,1.0655,1.0692,1.0692,0.0,0.9926,0.9816,0.9268,0.9047,0.894,0.894,0.894,0.894,0.894,0.894,0.894,0.894,0.894,0.894,0.894,0.894,0.894,0.894,0.894,0.894,0.894,0.894,0.894,0.894,0.894,0.894,0.894,0.894,0.894,0.894,0.894,0.894,0.894,0.894,0.894,0.894,0.8491,0.8045,0.8045,0.7595,0.7035,0.6369,0.6369,0.5588,0.3804,0.358,0.3135,0.1907,0.1795,0.1795,0.1795,0.1795,0.1795,0.1795,0.1795,0.1795,0.1795,0.1795,0.1795,0.1795,0.1795,0.1795,0.1795,0.1795,0.1795,1.3513,1.4052,1.4668,1.4368,0.0,0.0,0.0,0.0,0.0,0.0,0.0,0.0,0.0,0.0,0.0,0.0,0.0,0.0,0.0,0.0,0.0,0.0,0.0,0.0,0.0,0.0,0.0,0.0,0.0,0.0,0.0,0.0,0.0,0.0,0.0,0.0,1.3445,1.2496,1.2075,1.2075,1.1022,1.0562,1.0692,1.0692,1.0692,1.0582,1.0036,0.9816,0.9706,0.9158,0.894,0.894,0.894,0.894,0.894,0.894,0.894,0.894,0.894,0.894,0.894,0.894,0.894,0.894,0.894,0.894,0.894,0.894,0.894,0.894,0.894,0.894,0.894,0.894,0.894,0.894,0.894,0.894,0.894,0.894,0.894,0.894,0.894,0.894,0.894,0.894,0.894,0.8605,0.7598,0.7487,0.6705,0.4697,0.4474,0.3804,0.2353,0.1907,0.1795,0.1795,0.1795,0.1795,0.1795,0.1795,0.1795,0.1795,0.1795,0.1795,0.1795,0.1795,0.1795,0.1795,0.1795,0.1795,1.329,1.4429,1.5618,1.5391,0.0,0.0,0.0,0.0,0.0,0.0,0.0,0.0,0.0,0.0,0.0,0.0,0.0,0.0,0.0,0.0,0.0,0.0,0.0,0.0,0.0,0.0,0.0,0.0,0.0,0.0,0.0,0.0,0.0,0.0,0.0,0.0,1.2497,1.2394,1.2394,1.2394,1.121,1.068,1.0692,1.0692,1.0582,1.0257,0.9926,0.9706,0.9379,0.9047,0.894,0.894,0.894,0.894,0.894,0.894,0.894,0.894,0.894,0.894,0.894,0.894,0.894,0.894,0.894,0.894,0.894,0.894,0.894,0.894,0.894,0.894,0.894,0.894,0.894,0.894,0.894,0.894,0.894,0.894,0.894,0.894,0.894,0.894,0.894,0.894,0.894,0.8826,0.8826,0.8716,0.8269,0.7041,0.6818,0.5924,0.3692,0.2465,0.1795,0.1795,0.1795,0.1795,0.1795,0.1795,0.1795,0.1795,0.1795,0.1795,0.1795,0.1795,0.1795,0.1795,0.1795,0.1795,1.3856,1.4699,1.5624,1.6079,0.0,0.0,0.0,0.0,0.0,0.0,0.0,0.0,0.0,0.0,0.0,0.0,0.0,0.0,0.0,0.0,0.0,0.0,0.0,0.0,0.0,0.0,0.0,0.0,0.0,0.0,0.0,0.0,0.0,0.0,0.0,0.0,0.0,1.1341,1.1341,1.1341,1.0907,1.0692,1.0692,1.0692,1.0582,1.0257,0.9926,0.9596,0.9379,0.9047,0.894,0.894,0.894,0.894,0.894,0.894,0.894,0.894,0.894,0.894,0.894,0.894,0.894,0.894,0.894,0.894,0.894,0.894,0.894,0.894,0.894,0.894,0.894,0.894,0.894,0.894,0.894,0.894,0.894,0.894,0.894,0.894,0.894,0.894,0.894,0.894,0.894,0.894,0.894,0.894,0.8491,0.7265,0.648,0.5363,0.3692,0.3135,0.2576,0.1795,0.1795,0.1795,0.1795,0.1795,0.1795,0.1795,0.1795,0.1795,0.1795,0.1795,0.1795,0.1795,0.1795,0.1795,1.4455,1.5211,1.5989,0.0,0.0,0.0,0.0,0.0,0.0,0.0,0.0,0.0,0.0,0.0,0.0,0.0,0.0,0.0,0.0,0.0,0.0,0.0,0.0,0.0,0.0,0.0,0.0,0.0,0.0,0.0,0.0,0.0,0.0,0.0,0.0,0.0,0.0,1.0692,1.0692,1.0692,1.0692,1.0692,1.0692,1.0692,1.0472,1.0147,0.9926,0.9596,0.9268,0.9047,0.894,0.894,0.894,0.894,0.894,0.894,0.894,0.894,0.894,0.894,0.894,0.894,0.894,0.894,0.894,0.894,0.894,0.894,0.894,0.894,0.894,0.894,0.894,0.894,0.894,0.894,0.894,0.894,0.894,0.894,0.894,0.894,0.894,0.8977,0.9008,0.9008,0.9045,0.9079,0.9079,0.9079,0.8739,0.7945,0.6807,0.5786,0.4883,0.409,0.3298,0.2505,0.2051,0.1814,0.1795,0.1795,0.1795,0.1795,0.1795,0.1795,0.1795,0.1795,0.1795,0.1795,0.1795,0.18,1.5223,1.6041,0.0,0.0,0.0,0.0,0.0,0.0,0.0,0.0,0.0,0.0,0.0,0.0,0.0,0.0,0.0,0.0,0.0,0.0,0.0,0.0,0.0,0.0,0.0,0.0,0.0,0.0,0.0,0.0,0.0,0.0,0.0,0.0,0.0,0.0,0.0,1.0692,1.0692,1.0692,1.0692,1.0692,1.0692,1.0692,1.0363,0.9816,0.9816,0.9489,0.894,0.894,0.894,0.894,0.894,0.894,0.894,0.894,0.894,0.894,0.894,0.894,0.894,0.894,0.894,0.894,0.894,0.894,0.894,0.894,0.894,0.894,0.894,0.894,0.894,0.894,0.894,0.894,0.894,0.894,0.894,0.894,0.894,0.894,0.894,0.9059,0.9154,0.9154,0.9286,0.9381,0.9381,0.9381,0.9381,0.9381,0.8326,0.7624,0.7624,0.5284,0.388,0.3762,0.259,0.1859,0.1798,0.1795,0.1795,0.1795,0.1795,0.1795,0.1795,0.1795,0.1795,0.1795,0.1795,0.1812,1.5899,1.6535,0.0,0.0,0.0,0.0,0.0,0.0,0.0,0.0,0.0,0.0,0.0,0.0,0.0,0.0,0.0,0.0,0.0,0.0,0.0,0.0,0.0,0.0,0.0,0.0,0.0,0.0,0.0,0.0,0.0,0.0,0.0,0.0,0.0,0.0,1.0692,1.0692,1.0692,1.0692,1.0692,1.0692,1.0692,1.0472,1.0147,0.9816,0.9596,0.9268,0.894,0.894,0.894,0.894,0.894,0.894,0.894,0.894,0.894,0.894,0.894,0.894,0.894,0.894,0.894,0.894,0.894,0.894,0.894,0.894,0.894,0.894,0.894,0.894,0.894,0.894,0.894,0.894,0.894,0.894,0.894,0.894,0.894,0.8971,0.9072,0.9123,0.9191,0.9296,0.9351,0.9381,0.9381,0.9381,0.9381,0.9381,0.9029,0.8561,0.7624,0.692,0.5752,0.3879,0.3411,0.2813,0.1859,0.1859,0.1859,0.1859,0.1859,0.1859,0.1859,0.1859,0.1859,0.1859,0.1859,0.1864,1.687,0.0,0.0,0.0,0.0,0.0,0.0,0.0,0.0,0.0,0.0,0.0,0.0,0.0,0.0,0.0,0.0,0.0,0.0,0.0,0.0,0.0,0.0,0.0,0.0,0.0,0.0,0.0,0.0,0.0,0.0,0.0,0.0,0.0,0.0,0.0,1.0692,1.0692,1.0692,1.0582,1.0582,1.0472,1.0363,1.0363,1.0036,0.9596,0.9379,0.9047,0.894,0.894,0.894,0.894,0.894,0.894,0.894,0.894,0.894,0.894,0.894,0.894,0.894,0.894,0.894,0.894,0.894,0.894,0.894,0.894,0.894,0.894,0.894,0.894,0.894,0.894,0.894,0.894,0.894,0.894,0.894,0.894,0.8984,0.9052,0.9137,0.9252,0.9364,0.9459,0.952,0.9554,0.9554,0.9554,0.9554,0.9554,0.9554,0.9318,0.8482,0.8002,0.681,0.4785,0.419,0.3236,0.2042,0.1898,0.1886,0.1886,0.1886,0.1886,0.1886,0.1886,0.1886,0.1886,0.1886,0.1892,1.7789,0.0,0.0,0.0,0.0,0.0,0.0,0.0,0.0,0.0,0.0,0.0,0.0,0.0,0.0,0.0,0.0,0.0,0.0,0.0,0.0,0.0,0.0,0.0,0.0,0.0,0.0,0.0,0.0,0.0,0.0,0.0,0.0,0.0,0.0,0.0,1.0907,1.0802,1.0582,0.0,1.0257,1.0147,0.9816,1.0036,0.9926,0.9379,0.9047,0.894,0.894,0.894,0.894,0.894,0.894,0.894,0.894,0.894,0.894,0.894,0.894,0.894,0.894,0.894,0.894,0.894,0.894,0.894,0.894,0.894,0.894,0.894,0.894,0.894,0.894,0.894,0.894,0.894,0.894,0.894,0.8944,0.8957,0.9062,0.9161,0.9191,0.9425,0.9612,0.9629,0.9737,0.9822,0.9822,0.9822,0.9822,0.9822,0.9822,0.9822,0.9822,0.8714,0.749,0.6141,0.4795,0.3448,0.2222,0.2043,0.1894,0.1894,0.1894,0.1894,0.1894,0.1894,0.1894,0.1894,0.1894,0.1909,0.0,0.0,0.0,0.0,0.0,0.0,0.0,0.0,0.0,0.0,0.0,0.0,0.0,0.0,0.0,0.0,0.0,0.0,0.0,0.0,0.0,0.0,0.0,0.0,0.0,0.0,0.0,0.0,0.0,0.0,0.0,0.0,0.0,0.0,0.0,1.3491,1.2091,1.1122,1.0692,0.0,1.0363,1.0147,0.9816,0.9706,0.9379,0.9047,0.8937,0.894,0.894,0.894,0.894,0.894,0.894,0.894,0.894,0.894,0.894,0.894,0.894,0.894,0.894,0.894,0.894,0.894,0.894,0.894,0.894,0.894,0.894,0.894,0.894,0.894,0.894,0.894,0.894,0.894,0.894,0.894,0.8974,0.9086,0.913,0.9228,0.9469,0.9564,0.9646,0.9758,0.9802,0.9822,0.9822,0.9822,0.9822,0.9822,0.9822,0.9822,0.9822,0.9576,0.8839,0.7612,0.6263,0.4918,0.357,0.2574,0.1957,0.1957,0.1957,0.1957,0.1957,0.1957,0.1957,0.1957,0.1957,0.196,0.0,0.0,0.0,0.0,0.0,0.0,0.0,0.0,0.0,0.0,0.0,0.0,0.0,0.0,0.0,0.0,0.0,0.0,0.0,0.0,0.0,0.0,0.0,0.0,0.0,0.0,0.0,0.0,0.0,0.0,0.0,0.0,0.0,0.0,1.446,1.3275,1.1551,1.0907,1.0472,1.0472,1.0036,0.9706,0.9379,0.9268,0.9047,0.894,0.894,0.894,0.894,0.894,0.894,0.894,0.894,0.894,0.894,0.894,0.894,0.894,0.894,0.894,0.894,0.894,0.894,0.894,0.894,0.894,0.894,0.894,0.894,0.894,0.894,0.894,0.894,0.894,0.894,0.894,0.894,0.894,0.8981,0.9123,0.9211,0.9337,0.9568,0.9666,0.9737,0.9812,0.9822,0.9822,0.9822,0.9822,0.9822,0.9822,0.9822,0.9576,0.8961,0.8839,0.8102,0.6141,0.5284,0.4306,0.3081,0.2345,0.1977,0.1977,0.1977,0.1977,0.1977,0.1977,0.1977,0.1977,0.1977,0.1977,0.0,0.0,0.0,0.0,0.0,0.0,0.0,0.0,0.0,0.0,0.0,0.0,0.0,0.0,0.0,0.0,0.0,0.0,0.0,0.0,0.0,0.0,0.0,0.0,0.0,0.0,0.0,0.0,0.0,0.0,0.0,0.0,1.6393,1.4347,1.4024,1.2847,1.0907,1.0472,1.0257,1.0257,0.971,0.9268,0.894,0.894,0.894,0.894,0.894,0.894,0.894,0.894,0.894,0.894,0.894,0.894,0.894,0.894,0.894,0.894,0.894,0.894,0.894,0.894,0.894,0.894,0.894,0.894,0.894,0.894,0.894,0.894,0.894,0.894,0.894,0.894,0.894,0.894,0.894,0.8957,0.9018,0.9164,0.9337,0.9496,0.9625,0.9744,0.9822,0.9822,0.9822,0.9822,0.9822,0.9822,0.9822,0.9822,0.9822,0.9329,0.8349,0.8224,0.7243,0.5039,0.455,0.3816,0.2715,0.2223,0.1977,0.1977,0.1977,0.1977,0.1977,0.1977,0.1977,0.1977,0.1977,0.1977,0.0,0.0,0.0,0.0,0.0,0.0,0.0,0.0,0.0,0.0,0.0,0.0,0.0,0.0,0.0,0.0,0.0,0.0,0.0,0.0,0.0,0.0,0.0,0.0,0.0,0.0,0.0,0.0,0.0,0.0,0.0,1.6611,1.5855,1.5204,1.3491,1.2413,1.1873,1.0798,1.0257,1.0257,0.971,0.9268,0.894,0.894,0.894,0.894,0.894,0.894,0.894,0.894,0.894,0.894,0.894,0.894,0.894,0.894,0.894,0.894,0.894,0.894,0.894,0.894,0.894,0.894,0.894,0.894,0.894,0.894,0.894,0.894,0.894,0.894,0.894,0.894,0.894,0.894,0.894,0.9035,0.9167,0.932,0.9574,0.9768,0.9788,0.9808,0.9822,0.9822,0.9822,0.9822,0.9822,0.9822,0.9822,0.9822,0.9822,0.97,0.9576,0.9576,0.9451,0.9083,0.6877,0.5529,0.5408,0.3206,0.1977,0.1977,0.1977,0.1977,0.1977,0.1977,0.1977,0.1977,0.1977,0.1977,0.0,0.0,0.0,0.0,0.0,0.0,0.0,0.0,0.0,0.0,0.0,0.0,0.0,0.0,0.0,0.0,0.0,0.0,0.0,0.0,0.0,0.0,0.0,0.0,0.0,0.0,0.0,0.0,0.0,0.0,1.6387,1.5855,1.4883,1.3264,1.2408,0.0,1.0789,1.0143,0.9706,0.9489,0.9489,0.9268,0.894,0.894,0.894,0.894,0.894,0.894,0.894,0.894,0.894,0.894,0.894,0.894,0.894,0.894,0.894,0.894,0.894,0.894,0.894,0.894,0.894,0.894,0.894,0.894,0.894,0.894,0.894,0.894,0.894,0.894,0.894,0.894,0.894,0.896,0.9042,0.911,0.9222,0.9462,0.968,0.9822,0.9822,0.9822,0.9822,0.9822,0.9822,0.9822,0.9822,0.9822,0.9822,0.9822,0.9822,0.9454,0.8839,0.8714,0.8468,0.7612,0.6508,0.5529,0.4794,0.3693,0.2713,0.1977,0.1977,0.1977,0.1977,0.1977,0.1977,0.1977,0.1977,0.1977,0.0,0.0,0.0,0.0,0.0,0.0,0.0,0.0,0.0,0.0,0.0,0.0,0.0,0.0,0.0,0.0,0.0,0.0,0.0,0.0,0.0,0.0,0.0,0.0,0.0,0.0,0.0,0.0,0.0,0.0,1.5417,1.4877,1.3588,1.1433,1.1219,1.068,0.9706,0.9489,0.9268,0.894,0.9158,0.9158,0.894,0.894,0.894,0.894,0.894,0.894,0.894,0.894,0.894,0.894,0.894,0.894,0.894,0.894,0.894,0.894,0.894,0.894,0.894,0.894,0.894,0.894,0.894,0.894,0.894,0.894,0.894,0.894,0.894,0.894,0.894,0.894,0.8967,0.9032,0.9178,0.9242,0.9347,0.9612,0.9747,0.9822,0.9822,0.9822,0.9822,0.9822,0.9822,0.9822,0.9822,0.9822,0.9822,0.9822,0.9822,0.9451,0.8471,0.8349,0.7978,0.6999,0.663,0.6018,0.4916,0.4304,0.3448,0.2468,0.2223,0.1977,0.1977,0.1977,0.1977,0.1977,0.1977,0.1977,0.0,0.0,0.0,0.0,0.0,0.0,0.0,0.0,0.0,0.0,0.0,0.0,0.0,0.0,0.0,0.0,0.0,0.0,0.0,0.0,0.0,0.0,0.0,0.0,0.0,0.0,0.0,0.0,0.0,0.0,1.5417,1.3378,1.1869,1.1105,1.0355,0.9706,0.9379,0.9379,0.9268,0.894,0.894,0.894,0.894,0.894,0.894,0.894,0.894,0.894,0.894,0.894,0.894,0.894,0.894,0.894,0.894,0.894,0.894,0.894,0.894,0.894,0.894,0.894,0.894,0.894,0.894,0.894,0.894,0.894,0.894,0.894,0.894,0.894,0.894,0.894,0.9042,0.9184,0.9337,0.9483,0.9632,0.9781,0.9815,0.9822,0.9822,0.9822,0.9822,0.9822,0.9822,0.9822,0.9822,0.9822,0.9822,0.9822,0.9822,0.9819,0.9697,0.9697,0.9697,0.9576,0.8471,0.7734,0.7734,0.5284,0.3813,0.3815,0.259,0.1977,0.1977,0.1977,0.1977,0.1977,0.1977,0.1977,0.0,0.0,0.0,0.0,0.0,0.0,0.0,0.0,0.0,0.0,0.0,0.0,0.0,0.0,0.0,0.0,0.0,0.0,0.0,0.0,0.0,0.0,0.0,0.0,0.0,0.0,0.0,0.0,0.0,0.0,1.4126,1.2403,1.0895,0.9699,0.9375,0.9158,0.9047,0.9047,0.9051,0.894,0.894,0.894,0.894,0.894,0.894,0.894,0.894,0.894,0.894,0.894,0.894,0.894,0.894,0.894,0.894,0.894,0.894,0.894,0.894,0.894,0.894,0.894,0.894,0.894,0.894,0.894,0.894,0.894,0.894,0.894,0.894,0.894,0.896,0.9055,0.9191,0.934,0.9496,0.9642,0.9761,0.9812,0.9822,0.9822,0.9822,0.9822,0.9822,0.9822,0.9822,0.9822,0.9822,0.9822,0.9822,0.9822,0.9822,0.9822,0.9822,0.9822,0.9454,0.8593,0.8102,0.7121,0.5406,0.4427,0.357,0.2714,0.2222,0.1977,0.1977,0.1977,0.1977,0.1977,0.1977,0.1977,0.0,0.0,0.0,0.0,0.0,0.0,0.0,0.0,0.0,0.0,0.0,0.0,0.0,0.0,0.0,0.0,0.0,0.0,0.0,0.0,0.0,0.0,0.0,0.0,0.0,0.0,0.0,0.0,0.0,0.0,1.2729,1.1324,1.0025,0.8937,0.894,0.894,0.894,0.894,0.894,0.894,0.894,0.894,0.894,0.894,0.894,0.894,0.894,0.894,0.894,0.894,0.894,0.894,0.894,0.894,0.894,0.894,0.894,0.894,0.894,0.894,0.894,0.894,0.894,0.894,0.894,0.894,0.894,0.894,0.894,0.894,0.894,0.894,0.8988,0.9184,0.9306,0.9435,0.9639,0.9754,0.9822,0.9822,0.9822,0.9822,0.9822,0.9822,0.9822,0.9822,0.9822,0.9822,0.9822,0.9822,0.9822,0.9822,0.9822,0.9822,0.9822,0.9822,0.9207,0.798,0.7858,0.6877,0.4671,0.4182,0.3447,0.2714,0.2223,0.1977,0.1977,0.1977,0.1977,0.1977,0.1977,0.1977,0.0,0.0,0.0,0.0,0.0,0.0,0.0,0.0,0.0,0.0,0.0,0.0,0.0,0.0,0.0,0.0,0.0,0.0,0.0,0.0,0.0,0.0,0.0,0.0,0.0,0.0,0.0,0.0,0.0,1.3053,1.1651,1.0135,0.9268,0.894,0.894,0.894,0.894,0.894,0.894,0.894,0.894,0.894,0.894,0.894,0.894,0.894,0.894,0.894,0.894,0.894,0.894,0.894,0.894,0.894,0.894,0.894,0.894,0.894,0.894,0.894,0.894,0.894,0.894,0.894,0.894,0.894,0.894,0.894,0.894,0.894,0.894,0.894,0.9011,0.931,0.9381,0.9462,0.9758,0.9822,0.9822,0.9822,0.9822,0.9822,0.9822,0.9822,0.9822,0.9822,0.9822,0.9822,0.9822,0.9822,0.9822,0.9822,0.9822,0.9822,0.97,0.97,0.9204,0.7856,0.7734,0.7121,0.5896,0.455,0.3815,0.3815,0.259,0.1977,0.1977,0.1977,0.1977,0.1977,0.1977,0.1977,1.4148,0.0,0.0,0.0,0.0,0.0,0.0,0.0,0.0,0.0,0.0,0.0,0.0,0.0,0.0,0.0,0.0,0.0,0.0,0.0,0.0,0.0,0.0,0.0,0.0,0.0,0.0,0.0,1.4674,1.3156,1.2507,1.0241,0.9047,0.894,0.894,0.894,0.894,0.894,0.894,0.894,0.894,0.894,0.894,0.894,0.894,0.894,0.894,0.894,0.894,0.894,0.894,0.894,0.894,0.894,0.894,0.894,0.894,0.894,0.894,0.894,0.894,0.894,0.894,0.894,0.894,0.894,0.894,0.894,0.894,0.894,0.894,0.894,0.9011,0.931,0.9381,0.9462,0.9758,0.9822,0.9822,0.9822,0.9822,0.9822,0.9822,0.9822,0.9822,0.9822,0.9822,0.9822,0.9822,0.9822,0.9822,0.9822,0.9822,0.9451,0.8471,0.8468,0.7487,0.5161,0.5039,0.4429,0.3082,0.2714,0.2468,0.2468,0.2223,0.1977,0.1977,0.1977,0.1977,0.1977,0.1977,0.1977,0.0,0.0,0.0,0.0,0.0,0.0,1.6409,1.6157,0.0,0.0,0.0,0.0,0.0,0.0,0.0,0.0,0.0,0.0,0.0,0.0,0.0,0.0,0.0,0.0,0.0,0.0,0.0,0.0,1.4787,1.327,1.1964,1.0021,0.894,0.894,0.894,0.894,0.894,0.894,0.894,0.894,0.894,0.894,0.894,0.894,0.894,0.894,0.894,0.894,0.894,0.894,0.894,0.894,0.894,0.894,0.894,0.894,0.894,0.894,0.894,0.894,0.894,0.894,0.894,0.894,0.894,0.894,0.894,0.894,0.894,0.894,0.894,0.894,0.9011,0.931,0.9381,0.9462,0.9758,0.9822,0.9822,0.9822,0.9822,0.9822,0.9822,0.9822,0.9822,0.9822,0.9822,0.9822,0.9822,0.9822,0.9822,0.9822,0.9822,0.9329,0.798,0.7858,0.6752,0.4059,0.3936,0.3325,0.2099,0.1977,0.1977,0.1977,0.1977,0.1977,0.1977,0.1977,0.1977,0.1977,0.1977,0.1977,0.0,0.0,0.0,0.0,0.0,0.0,1.4545,1.4853,1.5095,0.0,0.0,0.0,0.0,0.0,0.0,0.0,0.0,0.0,0.0,0.0,0.0,0.0,0.0,0.0,0.0,0.0,1.5998,1.5227,1.4685,1.3275,1.0781,0.9588,0.894,0.894,0.894,0.894,0.894,0.894,0.894,0.894,0.894,0.894,0.894,0.894,0.894,0.894,0.894,0.894,0.894,0.894,0.894,0.894,0.894,0.894,0.894,0.894,0.894,0.894,0.894,0.894,0.894,0.894,0.894,0.894,0.894,0.894,0.894,0.894,0.894,0.894,0.894,0.894,0.9011,0.931,0.9381,0.9462,0.9758,0.9822,0.9822,0.9822,0.9822,0.9822,0.9822,0.9822,0.9822,0.9822,0.9822,0.9822,0.9822,0.9697,0.9576,0.9576,0.9454,0.8839,0.7612,0.7487,0.6388,0.3815,0.3692,0.3203,0.2099,0.1977,0.1977,0.1977,0.1977,0.1977,0.1977,0.1977,0.1977,0.1977,0.1977,0.1977,0.0,0.0,0.0,0.0,0.0,0.0,1.4256,1.4419,1.4533,0.0,0.0,0.0,0.0,0.0,0.0,0.0,0.0,0.0,0.0,0.0,0.0,0.0,0.0,0.0,0.0,0.0,1.6217,1.6105,1.404,1.2195,1.0781,0.9588,0.894,0.894,0.894,0.894,0.894,0.894,0.894,0.894,0.894,0.894,0.894,0.894,0.894,0.894,0.894,0.894,0.894,0.894,0.894,0.894,0.894,0.894,0.894,0.894,0.894,0.894,0.894,0.894,0.894,0.894,0.894,0.894,0.894,0.894,0.894,0.894,0.894,0.894,0.894,0.894,0.9011,0.931,0.9381,0.9462,0.9758,0.9822,0.9822,0.9822,0.9822,0.9822,0.9822,0.9822,0.9822,0.9822,0.9822,0.9822,0.9822,0.8961,0.8224,0.8224,0.7243,0.6141,0.4794,0.4671,0.406,0.2468,0.2345,0.2222,0.1977,0.1977,0.1977,0.1977,0.1977,0.1977,0.1977,0.1977,0.1977,0.1977,0.1977,0.1977,0.0,0.0,0.0,1.3381,0.0,0.0,0.0,1.4509,1.4588,1.4859,0.0,0.0,0.0,0.0,0.0,0.0,0.0,0.0,0.0,0.0,0.0,0.0,0.0,0.0,0.0,0.0,1.5891,1.525,1.296,1.1328,1.0781,0.9588,0.894,0.894,0.894,0.894,0.894,0.894,0.894,0.894,0.894,0.894,0.894,0.894,0.894,0.894,0.894,0.894,0.894,0.894,0.894,0.894,0.894,0.894,0.894,0.894,0.894,0.894,0.894,0.894,0.894,0.894,0.894,0.894,0.894,0.894,0.894,0.894,0.894,0.894,0.894,0.8991,0.9103,0.9327,0.9439,0.9554,0.9774,0.9329,0.8839,0.8839,0.8346,0.8224,0.9576,0.9822,0.9822,0.9822,0.9207,0.8839,0.8839,0.7734,0.6877,0.6877,0.6263,0.5406,0.4059,0.3936,0.3325,0.2099,0.1977,0.1977,0.1977,0.1977,0.1977,0.1977,0.1977,0.1977,0.1977,0.1977,0.1977,0.1977,0.1977,0.1977,0.0,0.0,0.0,0.0,0.0,1.3773,0.0,0.0,0.0,1.4908,0.0,0.0,0.0,0.0,0.0,0.0,0.0,0.0,0.0,0.0,0.0,0.0,0.0,0.0,0.0,0.0,1.5137,1.4277,1.1982,1.0672,1.0672,0.9588,0.894,0.894,0.894,0.894,0.894,0.894,0.894,0.894,0.894,0.894,0.894,0.894,0.894,0.894,0.894,0.894,0.894,0.894,0.894,0.894,0.894,0.894,0.894,0.894,0.894,0.894,0.894,0.894,0.894,0.894,0.894,0.894,0.894,0.894,0.894,0.894,0.894,0.894,0.894,0.9045,0.9191,0.9344,0.95,0.953,0.9425,0.8593,0.7856,0.7612,0.6632,0.663,0.8714,0.9083,0.9083,0.9083,0.8224,0.749,0.749,0.6388,0.5529,0.5529,0.5286,0.4674,0.357,0.357,0.3081,0.2099,0.1977,0.1977,0.1977,0.1977,0.1977,0.1977,0.1977,0.1977,0.1977,0.1977,0.1977,0.1977,0.1977,0.1977,0.0,0.0,0.0,0.0,1.3857,0.0,0.0,0.0,1.4352,1.4383,0.0,0.0,0.0,0.0,0.0,0.0,0.0,0.0,0.0,0.0,0.0,0.0,0.0,0.0,0.0,0.0,0.0,1.4169,1.1982,1.0672,1.0672,0.9588,0.894,0.894,0.894,0.894,0.894,0.894,0.894,0.894,0.894,0.894,0.894,0.894,0.894,0.894,0.894,0.894,0.894,0.894,0.894,0.894,0.894,0.894,0.894,0.894,0.894,0.894,0.894,0.894,0.894,0.894,0.894,0.894,0.894,0.894,0.894,0.894,0.894,0.894,0.894,0.9045,0.9191,0.9344,0.95,0.9287,0.8323,0.798,0.749,0.6385,0.6018,0.6018,0.6263,0.6385,0.6385,0.6385,0.6263,0.6141,0.6141,0.4916,0.4182,0.4182,0.3081,0.2346,0.2222,0.2223,0.2099,0.1977,0.1977,0.1977,0.1977,0.1977,0.1977,0.1977,0.1977,0.1977,0.1977,0.1977,0.1977,0.1977,0.1977,0.1977,0.0,0.0,0.0,0.0,0.0,0.0,0.0,0.0,1.4298,0.0,0.0,0.0,0.0,0.0,0.0,0.0,0.0,0.0,0.0,0.0,0.0,0.0,0.0,0.0,0.0,0.0,0.0,0.0,0.0,0.9699,0.9699,0.9154,0.894,0.894,0.894,0.894,0.894,0.894,0.894,0.894,0.894,0.894,0.894,0.894,0.894,0.894,0.894,0.894,0.894,0.894,0.894,0.894,0.894,0.894,0.894,0.894,0.894,0.894,0.894,0.894,0.894,0.894,0.894,0.894,0.894,0.894,0.894,0.894,0.894,0.8957,0.9042,0.9174,0.9323,0.9479,0.9023,0.853,0.7969,0.6632,0.5406,0.4795,0.4185,0.3696,0.3696,0.492,0.5896,0.5896,0.5284,0.4795,0.4795,0.3571,0.2836,0.2836,0.2346,0.1977,0.1977,0.1977,0.1977,0.1977,0.1977,0.1977,0.1977,0.1977,0.1977,0.1977,0.1977,0.1977,0.1977,0.1977,0.1977,0.1977,0.1977,0.1977,1.3638,0.0,0.0,0.0,0.0,0.0,0.0,0.0,0.0,0.0,0.0,0.0,0.0,0.0,0.0,0.0,0.0,0.0,0.0,0.0,0.0,0.0,0.0,0.0,0.0,0.0,0.0,0.0,0.9888,0.0,0.8937,0.894,0.894,0.894,0.894,0.894,0.894,0.894,0.894,0.894,0.894,0.894,0.894,0.894,0.894,0.894,0.894,0.894,0.894,0.894,0.894,0.894,0.894,0.894,0.894,0.894,0.894,0.894,0.894,0.894,0.894,0.894,0.894,0.894,0.894,0.894,0.894,0.894,0.8967,0.9022,0.9127,0.9296,0.9473,0.9585,0.8988,0.8224,0.749,0.5774,0.4182,0.357,0.259,0.1977,0.1977,0.3573,0.4797,0.4797,0.4062,0.3325,0.3325,0.259,0.1977,0.1977,0.1977,0.1977,0.1977,0.1977,0.1977,0.1977,0.1977,0.1977,0.1977,0.1977,0.1977,0.1977,0.1977,0.1977,0.1977,0.1977,0.1977,0.1977,0.1977,0.1977,0.0,0.0,0.0,0.0,0.0,0.0,0.0,0.0,1.4298,0.0,0.0,0.0,0.0,0.0,0.0,0.0,0.0,0.0,0.0,0.0,0.0,0.0,0.0,0.0,0.0,0.0,0.0,0.0,0.9355,0.0,0.893,0.894,0.894,0.894,0.894,0.894,0.894,0.894,0.894,0.894,0.894,0.894,0.894,0.894,0.894,0.894,0.894,0.894,0.894,0.894,0.894,0.894,0.894,0.894,0.894,0.894,0.894,0.894,0.894,0.894,0.894,0.894,0.894,0.894,0.894,0.894,0.894,0.894,0.9039,0.9147,0.915,0.9374,0.9605,0.9608,0.9717,0.9083,0.651,0.5896,0.504,0.2591,0.1977,0.1977,0.1977,0.2099,0.2099,0.2099,0.2099,0.2099,0.2099,0.1977,0.1977,0.1977,0.1977,0.1977,0.1977,0.1977,0.1977,0.1977,0.1977,0.1977,0.1977,0.1977,0.1977,0.1977,0.1977,0.1977,0.1977,0.1977,0.1977,0.1977,0.1977,0.1977,0.0,0.0,1.3414,1.41,0.0,0.0,0.0,0.0,0.0,0.0,0.0,0.0,0.0,0.0,0.0,0.0,0.0,0.0,0.0,0.0,0.0,0.0,0.0,0.0,0.0,0.0,0.0,1.0059,0.9859,0.9478,0.0,0.8882,0.894,0.894,0.894,0.894,0.894,0.894,0.894,0.894,0.894,0.894,0.894,0.894,0.894,0.894,0.894,0.894,0.894,0.894,0.894,0.894,0.894,0.894,0.894,0.894,0.894,0.894,0.894,0.894,0.894,0.894,0.894,0.894,0.894,0.894,0.8957,0.9052,0.9117,0.9201,0.9401,0.9534,0.9632,0.9727,0.9172,0.8346,0.7368,0.651,0.5651,0.4797,0.4553,0.4553,0.4553,0.4553,0.4307,0.3448,0.3202,0.3202,0.3202,0.2468,0.1977,0.1977,0.1977,0.1977,0.1977,0.1977,0.1977,0.1977,0.1977,0.1977,0.1977,0.1977,0.1977,0.1977,0.1977,0.1977,0.1977,0.1977,0.1977,0.1977,0.1977,0.1977,1.1853,1.2145,0.0,0.0,1.3414,0.0,1.2829,0.0,0.0,0.0,0.0,0.0,0.0,0.0,0.0,0.0,0.0,0.0,0.0,0.0,0.0,0.0,0.0,0.0,0.0,0.0,1.061,1.0378,1.0664,1.0343,0.0,0.0,0.9375,0.894,0.894,0.894,0.894,0.894,0.894,0.894,0.894,0.894,0.894,0.894,0.894,0.894,0.894,0.894,0.894,0.894,0.894,0.894,0.894,0.894,0.894,0.894,0.894,0.894,0.894,0.894,0.894,0.894,0.894,0.894,0.894,0.894,0.8967,0.9113,0.9191,0.9293,0.9544,0.9646,0.9707,0.9798,0.9207,0.8471,0.798,0.7243,0.6508,0.6018,0.5896,0.5896,0.5896,0.6263,0.6141,0.4794,0.4673,0.4673,0.4673,0.3939,0.3204,0.2714,0.2714,0.2468,0.2099,0.1977,0.1977,0.1977,0.1977,0.1977,0.1977,0.1977,0.1971,0.196,0.1971,0.1971,0.196,0.1971,0.1977,0.1977,0.1977,0.1977]}]]